[{"header": {"dx": 0.06612293990616946, "dy": 0.0552356325346848, "nx": 98, "ny": 59, "la1": 35.046912555036876, "la2": 31.78801023549047, "lo1": -121.43107172385933, "lo2": -114.95102361305473, "refTime": "2026041008", "parameterCategory": 1, "parameterNumber": 2}, "data": [2.6, 2.4, 1.9, 1.9, 1.24, -0.0, -0.0, -0.65, -1.2, -1.2, -0.71, -0.0, -0.0, -0.0, -1.26, -1.34, -1.79, -0.89, -0.6, -0.0, -0.0, 0.76, 2.07, 2.84, 3.22, 3.45, 3.83, 3.16, 1.2, -0.0, -1.26, -2.12, -2.24, -2.24, -1.79, -0.89, 0.0, 0.45, 0.45, 0.0, 0.0, 0.45, 0.95, 2.23, 4.4, 6.64, 8.0, 8.63, 7.89, 4.47, 4.46, 4.65, 5.69, 6.01, 6.01, 6.32, 7.02, 7.35, 8.06, 8.06, 8.24, 8.24, 8.05, 7.6, 6.82, 7.07, 7.69, 9.27, 10.23, 11.34, 11.62, 10.95, 9.83, 8.4, 7.28, 8.14, 8.19, 2.68, -1.2, -3.07, -3.51, -3.07, -2.53, -2.15, -1.49, -0.66, 0.0, 0.7, 3.07, 6.44, 9.27, 9.56, 10.29, 10.9, 10.9, 10.87, 9.84, 8.67, 2.6, 2.4, 1.86, 1.24, 1.24, 0.71, -0.0, -0.0, -0.54, -0.54, -0.0, -0.0, -0.0, -0.0, -0.0, -1.79, -1.34, -0.89, -0.95, -0.57, -0.0, -0.0, 1.6, 2.99, 3.16, 2.86, 2.8, 1.9, 1.24, -0.0, -0.0, -0.54, -1.26, -1.79, -1.79, -1.79, -0.89, 0.0, -0.0, -0.0, 0.0, 0.0, 1.49, 3.07, 5.06, 7.06, 7.69, 6.54, 3.58, 3.79, 4.65, 5.37, 6.06, 5.69, 5.69, 6.01, 6.68, 7.68, 8.06, 8.3, 8.63, 8.63, 8.0, 7.03, 6.08, 6.39, 8.06, 8.93, 10.23, 11.34, 12.04, 10.95, 9.83, 8.63, 7.28, 8.19, 9.83, 2.68, -1.2, -3.07, -3.51, -3.07, -2.53, -2.15, -1.49, -0.66, 0.0, 0.7, 3.07, 6.44, 9.27, 9.56, 10.29, 10.9, 10.9, 10.87, 9.84, 8.67, 2.6, 2.17, 1.86, 1.86, 1.24, 0.57, -0.0, -0.0, -0.71, -0.71, -0.0, -0.0, -0.0, -0.0, -0.0, -0.0, 0.89, -0.45, -1.2, -1.6, -1.26, -0.0, -0.0, 1.6, 4.19, 4.11, 2.84, 1.24, -0.0, -0.65, -0.0, -0.0, -0.0, -0.0, 0.6, 0.45, 0.0, 0.45, 0.0, 0.0, 0.0, 1.16, 2.98, 4.83, 5.21, 5.69, 4.46, 3.04, 3.79, 4.74, 5.43, 5.77, 5.77, 5.37, 5.06, 5.69, 6.32, 7.69, 8.3, 8.63, 8.8, 8.55, 7.6, 6.08, 5.77, 6.01, 7.68, 9.3, 10.28, 11.44, 12.29, 11.87, 10.32, 8.8, 7.01, 8.01, 10.62, 6.22, 0.0, -2.17, -2.12, -2.4, -2.21, -2.41, -2.15, -2.07, -0.7, 0.0, 3.22, 7.68, 10.29, 10.91, 10.24, 9.9, 10.28, 9.3, 8.67, 7.67, 2.6, 2.17, 1.86, 1.86, 1.24, 0.57, 0.57, -0.0, -0.0, -0.57, -0.0, -0.0, -0.0, -0.0, -0.0, 0.89, 0.45, 0.0, -0.45, -1.2, -0.6, -0.6, -0.0, 0.54, 1.84, 4.47, 4.36, 2.15, -0.0, -1.2, -1.33, -0.73, -0.0, 0.88, 2.68, 3.22, 2.8, 1.79, 0.95, 1.26, 1.88, 2.98, 3.55, 3.64, 3.79, 3.32, 2.8, 4.11, 4.74, 5.43, 5.09, 5.09, 5.09, 4.74, 4.65, 5.69, 7.06, 7.69, 8.63, 8.63, 9.08, 8.55, 6.44, 4.74, 4.95, 5.89, 7.27, 8.57, 10.45, 11.75, 12.79, 13.07, 11.4, 8.84, 6.71, 6.26, 8.94, 9.83, 0.95, -2.91, -2.4, -1.26, -1.9, -2.84, -3.83, -2.21, -0.54, 0.79, 4.83, 9.62, 10.9, 10.24, 9.56, 9.27, 8.06, 6.64, 6.94, 6.94, 2.6, 2.17, 1.86, 1.86, 1.58, 0.99, 0.57, -0.0, -0.0, -0.8, -0.0, -0.0, -0.0, -0.0, 0.89, 0.45, 0.0, 0.0, 0.0, -0.45, -0.0, -0.0, -0.0, 0.57, 1.2, 1.6, 4.19, 4.47, 1.8, -0.0, -1.2, -1.4, -0.61, 0.61, 2.53, 4.22, 4.98, 3.95, 3.07, 1.88, 2.51, 3.49, 3.07, 3.51, 3.58, 3.74, 4.81, 4.43, 5.09, 5.09, 4.81, 4.81, 4.81, 4.43, 5.06, 6.39, 7.07, 7.67, 8.63, 9.49, 9.33, 7.03, 4.74, 3.9, 4.71, 5.76, 6.95, 7.59, 9.23, 11.53, 13.43, 14.17, 12.72, 10.45, 7.15, 5.2, 6.28, 7.56, 1.79, -4.0, -3.45, -1.61, -1.88, -3.49, -4.84, -1.88, 0.0, 4.56, 7.82, 10.18, 10.24, 9.92, 7.97, 3.74, 2.24, 3.13, 6.98, 7.47, 2.17, 2.17, 1.86, 1.86, 1.26, 1.26, 1.26, 0.8, -0.0, -0.0, -0.0, -0.0, 0.89, 0.45, 0.45, 0.89, 0.45, 0.0, 0.45, 0.0, 0.45, 0.0, 0.45, 0.8, 1.49, 1.9, 2.53, 3.79, 4.43, 3.22, 0.65, -0.0, -0.0, 0.6, 2.6, 3.53, 4.41, 6.11, 3.58, 1.24, 1.2, 1.86, 3.13, 3.97, 4.93, 5.09, 4.74, 4.74, 4.74, 4.12, 3.84, 3.79, 4.46, 4.81, 5.46, 6.64, 6.94, 7.35, 8.55, 9.83, 7.98, 4.84, 3.11, 3.69, 4.6, 6.14, 6.53, 6.64, 7.97, 10.9, 13.35, 13.89, 13.89, 13.49, 11.4, 8.05, 4.24, 3.32, 2.17, -3.45, -4.46, -2.0, -2.0, -3.79, -4.01, 0.0, 3.88, 8.46, 10.51, 9.48, 8.53, 7.9, 2.23, -0.54, -0.0, 3.13, 8.19, 8.95, 2.17, 2.12, 1.86, 1.86, 1.26, 1.26, 1.26, 0.8, -0.0, -0.0, -0.0, 0.45, 0.89, 0.45, 0.89, 0.89, 0.0, 0.0, 0.6, 0.0, 0.0, 0.0, 0.0, 0.63, 1.79, 2.24, 2.6, 3.04, 2.8, 2.53, 3.22, 1.33, 1.4, 1.58, 2.6, 3.13, 3.58, 6.61, 3.47, 0.45, -0.63, 0.0, 1.34, 2.6, 3.2, 4.01, 4.83, 5.3, 4.65, 5.59, 4.43, 3.49, 4.46, 5.43, 5.43, 5.86, 5.59, 5.64, 7.45, 8.63, 5.34, 2.41, 2.4, 3.09, 4.71, 5.86, 6.64, 6.44, 7.07, 10.15, 12.14, 13.07, 13.64, 15.13, 14.44, 12.42, 7.6, 3.13, 3.13, 3.45, -2.2, -1.58, -1.49, -2.26, -0.76, 2.06, 7.01, 9.31, 10.12, 9.23, 7.22, 2.84, -0.57, -1.33, 0.6, 4.24, 9.08, 9.2, 2.12, 2.12, 1.86, 1.86, 1.26, 1.26, 1.26, 1.26, 0.95, -0.0, 0.45, 0.89, 1.34, 0.89, 1.34, 0.45, 0.0, 1.26, 2.0, 1.34, 0.89, 0.89, 0.6, 0.71, 1.24, 1.86, 2.23, 1.7, 1.34, 1.24, 2.21, 2.53, 2.5, 2.8, 3.53, 3.13, 3.58, 4.47, 4.02, 0.95, -0.89, -0.89, -0.45, 0.45, -0.0, 0.98, 2.9, 5.49, 5.94, 5.44, 2.86, 3.22, 4.46, 5.05, 5.34, 5.16, 4.41, 4.02, 6.26, 5.77, 3.45, 1.4, 1.33, 3.0, 4.56, 6.32, 7.02, 6.94, 6.51, 8.8, 10.93, 12.3, 13.32, 14.28, 13.84, 12.44, 10.93, 7.92, 8.05, 10.16, 6.96, 0.0, 0.0, 0.0, 1.39, 4.15, 7.19, 9.1, 9.17, 7.97, 2.79, -0.63, -1.4, -0.0, 2.24, 6.54, 8.88, 8.88, 2.12, 1.86, 1.86, 1.49, 1.26, 1.26, 1.26, 1.6, 0.95, 0.63, 0.89, 0.89, 1.34, 1.34, 1.34, 0.95, 0.0, 1.26, 1.26, 0.89, 0.89, 1.34, 1.79, 1.58, 1.2, 2.21, 1.49, 0.0, 0.0, 1.34, 2.68, 2.68, 2.68, 2.6, 3.07, 3.58, 3.47, 3.9, 3.13, 0.89, -0.89, -1.34, -1.79, -1.79, -0.8, -0.0, 1.08, 3.97, 5.94, 6.32, 6.01, 4.11, 4.46, 5.05, 4.93, 4.73, 4.02, 4.02, 4.02, 3.32, 3.07, 1.47, 1.41, 2.47, 4.03, 6.24, 8.32, 7.6, 5.81, 7.11, 9.39, 11.62, 13.41, 12.96, 11.18, 9.83, 9.39, 10.26, 12.52, 14.3, 12.05, 2.12, 0.72, 1.39, 2.82, 4.8, 6.29, 8.53, 8.24, 5.72, 1.2, -0.0, -0.0, 0.45, 3.32, 8.0, 9.27, 8.67, 1.86, 1.86, 1.86, 1.49, 1.26, 1.26, 1.7, 1.6, 1.2, 0.89, 0.89, 1.34, 1.79, 1.6, 1.58, 1.0, 0.99, 0.0, 0.0, 0.0, 0.0, 0.8, 2.23, 1.49, 1.4, 1.4, 1.49, 0.0, 0.0, 2.23, 3.2, 1.86, 0.45, 0.45, 1.79, 3.13, 4.47, 3.13, 1.79, 0.0, -0.63, -0.89, -0.89, -0.89, -0.0, -0.0, 1.2, 2.15, 3.72, 5.3, 5.49, 5.94, 6.01, 5.43, 5.09, 5.05, 4.66, 3.13, 2.24, 1.2, 1.65, 2.35, 3.3, 3.09, 4.0, 6.14, 8.65, 8.55, 5.78, 5.59, 7.71, 10.08, 11.99, 11.54, 10.19, 8.71, 7.89, 8.82, 10.52, 13.84, 15.65, 9.74, 0.67, 1.36, 2.12, 3.51, 5.52, 6.58, 6.35, 3.14, 1.7, 0.89, 0.6, 1.2, 4.46, 8.67, 9.3, 8.03, 1.86, 1.86, 1.86, 1.86, 1.49, 1.7, 1.7, 1.7, 1.6, 1.34, 0.89, 1.34, 1.79, 2.24, 2.4, 2.6, 1.98, 1.27, 1.11, 1.11, 0.65, 1.2, 1.88, 1.4, 2.48, 1.49, 1.49, 0.85, 1.49, 2.21, 2.8, 0.63, -0.89, -0.89, 0.89, 3.13, 3.58, 2.12, 0.45, 0.45, 0.45, 0.0, 0.63, 1.58, 1.4, 0.65, 0.61, 1.33, 1.49, 2.2, 3.7, 5.52, 6.31, 6.05, 6.14, 5.86, 6.14, 3.49, 0.63, -0.73, -0.0, 2.41, 2.97, 2.35, 3.02, 5.51, 8.37, 9.23, 7.67, 4.92, 5.34, 7.56, 9.15, 9.15, 8.48, 7.84, 6.9, 6.44, 8.05, 10.43, 12.79, 11.62, 3.51, 0.7, 1.27, 1.94, 3.55, 4.02, 3.43, 1.88, 1.61, 1.4, 0.61, 1.41, 5.3, 8.65, 9.66, 7.68, 1.86, 1.86, 1.86, 1.86, 1.86, 2.12, 2.12, 1.7, 1.7, 1.79, 1.34, 1.34, 1.79, 2.24, 3.07, 2.91, 3.39, 3.6, 3.88, 3.7, 3.87, 3.44, 3.09, 3.82, 3.13, 3.58, 3.82, 3.07, 2.6, 2.68, 3.13, 1.7, -0.0, -0.45, 0.0, 1.34, 1.34, -0.0, -0.89, 0.0, -0.0, 0.57, 1.24, 1.4, 1.27, -0.0, -0.0, -0.0, 1.1, 1.01, 1.4, 3.06, 4.6, 5.3, 4.58, 5.2, 7.01, 7.82, 1.88, -1.55, -0.78, 1.56, 2.28, 0.74, 0.76, 3.11, 7.01, 8.72, 9.1, 8.32, 7.06, 6.67, 7.15, 7.6, 6.55, 5.69, 4.46, 3.43, 5.72, 6.9, 7.21, 7.6, 4.92, 0.57, 1.24, 2.21, 2.79, 2.15, 1.9, 1.58, 1.4, 1.41, 0.7, 2.2, 5.38, 9.27, 9.3, 5.43, 1.9, 2.23, 2.23, 1.86, 1.86, 2.12, 2.12, 2.12, 2.12, 1.79, 1.79, 1.79, 1.79, 2.24, 3.13, 3.53, 4.43, 4.77, 5.34, 5.79, 6.71, 7.15, 7.13, 6.61, 6.51, 6.51, 6.94, 7.4, 6.94, 5.7, 3.13, 2.6, 1.6, 0.45, 0.0, -0.0, -0.63, -0.63, -1.2, -0.63, -0.0, -0.0, 0.54, -0.0, -0.0, -0.0, -0.76, -0.0, -0.0, -0.0, -0.0, 0.59, 1.27, 1.41, 1.05, 2.16, 4.2, 10.43, 7.07, -0.0, -2.23, 0.74, 0.74, -0.0, -0.73, -0.0, 2.93, 6.09, 8.72, 10.34, 10.51, 9.92, 9.6, 8.91, 7.15, 3.39, 1.24, 1.24, 2.86, 3.07, 2.4, 3.51, 6.66, 3.95, 1.26, 2.4, 2.86, 2.4, 2.17, 2.17, 1.86, 1.4, 0.7, 2.4, 6.31, 9.23, 8.3, 2.53, 2.15, 2.15, 2.4, 2.4, 2.4, 2.6, 2.17, 2.17, 2.17, 2.24, 2.24, 1.79, 2.24, 2.24, 2.63, 3.53, 4.44, 4.89, 5.78, 6.23, 6.71, 7.15, 7.58, 8.03, 8.03, 8.42, 8.42, 8.33, 8.21, 7.87, 6.68, 3.58, 3.58, 0.89, 0.0, -0.0, -0.0, -0.0, -0.0, -0.0, -0.0, -0.0, -0.0, -0.0, -0.0, -0.0, -0.54, -0.71, -0.57, -0.71, -0.0, -0.0, 0.45, 0.0, 0.0, -0.89, -0.0, 8.4, 12.38, 1.27, -2.9, -1.14, -0.0, -1.04, -1.52, -1.58, -0.0, 1.4, 6.45, 8.76, 11.06, 11.87, 10.9, 10.01, 7.89, 2.91, 0.57, 1.6, 2.24, 2.68, 2.23, 3.83, 6.54, 6.13, 2.23, 2.8, 2.8, 2.17, 2.24, 2.68, 3.13, 2.4, 2.07, 3.0, 5.78, 7.9, 6.06, 2.15, 2.5, 2.5, 2.4, 2.4, 2.4, 2.6, 2.6, 2.6, 2.17, 2.17, 2.24, 2.24, 2.24, 2.68, 3.07, 3.53, 3.98, 4.89, 5.34, 5.79, 6.71, 7.15, 7.6, 8.05, 8.05, 8.47, 8.42, 8.86, 9.32, 9.23, 8.42, 6.71, 4.47, 2.68, 1.79, -0.0, 1.4, 0.57, 1.2, 0.63, 0.63, 1.79, 1.79, 1.58, -0.0, -0.0, -0.0, -1.4, -1.2, -0.95, -0.0, 0.0, 0.0, 0.0, 0.0, -1.2, -0.8, 4.3, 11.53, 5.37, -0.7, -1.4, -1.4, -1.4, -1.6, -1.8, -1.4, -0.0, 2.16, 6.95, 9.62, 12.13, 12.14, 10.18, 5.32, 2.98, 3.79, 5.37, 6.07, 5.59, 4.02, 4.24, 5.2, 5.09, 4.07, 3.84, 2.86, 2.4, 2.12, 3.04, 3.95, 3.82, 2.84, 3.48, 4.65, 4.46, 2.4, 2.4, 2.68, 2.68, 2.91, 2.91, 2.91, 2.91, 2.63, 2.63, 2.6, 2.6, 2.68, 2.24, 2.68, 2.68, 3.13, 3.53, 3.98, 4.88, 5.33, 5.78, 6.26, 6.71, 7.15, 7.6, 8.03, 8.03, 8.47, 8.86, 8.87, 8.87, 8.87, 8.03, 5.81, 4.02, 2.24, 0.6, 0.71, 1.2, 2.53, 2.68, 1.34, 1.34, 1.58, 1.2, -0.0, -0.0, -0.0, -1.4, -0.0, -0.0, 1.34, 0.0, 0.45, 0.89, 0.45, 0.0, 0.71, 2.53, 4.47, 2.53, 0.54, -0.0, -0.0, -1.6, -1.6, -1.7, -1.86, -0.65, 1.05, 6.32, 9.6, 12.79, 13.41, 8.01, 2.68, 2.35, 5.28, 7.52, 8.65, 8.32, 8.05, 7.21, 6.26, 4.41, 2.3, 1.41, 2.98, 2.15, 1.88, 2.84, 4.46, 3.45, 2.86, 4.09, 5.69, 3.49, 2.5, 2.5, 3.07, 3.07, 3.07, 2.91, 2.91, 2.91, 2.91, 3.07, 3.07, 2.63, 2.63, 2.68, 2.68, 2.68, 3.13, 3.58, 3.98, 4.44, 4.89, 5.36, 5.81, 6.26, 6.71, 7.15, 7.58, 8.03, 8.47, 8.47, 8.47, 8.94, 8.94, 8.49, 6.71, 4.92, 1.34, 0.6, 0.57, 1.86, 2.68, 4.02, 2.68, 0.89, 1.58, 0.6, -0.0, -0.0, -0.0, -0.0, -0.0, -0.0, -0.0, -0.0, 1.34, 1.58, 1.58, 2.68, 3.13, 2.68, 1.4, 1.6, 2.8, 2.4, -0.0, -0.0, -1.58, -0.45, -1.34, -1.26, 0.71, 7.81, 13.36, 13.78, 12.09, 3.58, 0.7, 2.31, 6.09, 9.1, 10.9, 10.28, 9.92, 10.87, 10.52, 8.24, 3.07, 0.0, 1.47, 1.41, 3.22, 4.74, 4.75, 2.86, 2.21, 3.78, 5.46, 4.09, 2.53, 2.53, 3.2, 3.2, 3.2, 3.39, 3.39, 3.39, 3.39, 3.07, 3.07, 3.07, 3.07, 2.68, 2.68, 3.13, 3.13, 3.58, 4.02, 4.02, 4.47, 4.92, 5.81, 6.23, 6.26, 6.26, 7.06, 7.58, 7.6, 7.6, 8.05, 8.05, 8.05, 8.05, 7.15, 5.81, 3.58, 1.34, 0.89, 2.12, 3.04, 3.04, 1.7, 0.45, 0.45, 0.63, 1.9, 1.2, 1.2, -0.0, -0.0, 1.2, 1.2, 1.2, 1.2, 1.2, 1.9, 2.8, 2.8, 2.53, 1.6, 2.8, 2.8, 3.39, 1.9, -0.0, -1.27, -0.57, -0.0, 0.0, 0.65, 8.22, 15.05, 15.12, 10.28, 3.45, 1.41, 2.8, 6.53, 10.55, 12.47, 11.83, 11.34, 11.87, 12.14, 7.6, 1.24, -0.76, 0.0, 0.76, 2.2, 3.9, 3.79, 2.15, 2.51, 4.07, 4.74, 3.49, 3.16, 3.16, 3.6, 3.6, 3.6, 3.6, 3.39, 3.39, 3.39, 3.39, 3.53, 3.09, 3.07, 3.07, 3.13, 3.13, 3.13, 4.02, 3.58, 4.02, 4.02, 4.92, 5.81, 5.7, 5.24, 5.36, 5.81, 6.26, 5.81, 4.92, 5.31, 6.23, 6.71, 6.71, 6.68, 6.23, 5.36, 3.98, 3.39, 3.88, 3.2, 2.97, 2.6, 1.79, 1.34, 3.13, 2.8, 2.53, 2.53, 2.8, 1.9, 1.9, 1.9, 1.4, 1.4, 1.6, 1.13, 2.84, 2.53, 3.2, 3.39, 3.58, 3.58, 3.58, 2.24, -0.8, -1.49, -1.49, -0.6, 0.6, 2.98, 7.64, 12.79, 15.03, 15.84, 13.23, 9.33, 4.73, 5.36, 9.39, 12.49, 12.87, 12.52, 12.96, 12.49, 10.26, 3.32, 0.0, -0.61, 0.0, 1.47, 1.23, 1.41, 2.98, 3.9, 3.55, 3.64, 3.48, 2.84, 2.84, 3.7, 3.7, 3.6, 3.6, 3.6, 3.82, 3.82, 3.39, 3.39, 3.53, 3.53, 3.09, 3.13, 3.13, 3.58, 3.58, 3.58, 3.58, 4.02, 4.47, 5.75, 4.8, 4.11, 4.22, 5.2, 4.66, 4.41, 5.33, 5.36, 5.36, 5.78, 5.78, 6.16, 6.6, 5.79, 5.36, 4.44, 4.77, 4.8, 4.89, 4.88, 4.47, 4.44, 4.77, 4.19, 4.34, 3.82, 3.39, 2.8, 2.4, 1.9, 1.2, 1.4, 1.13, 0.71, 1.2, 3.79, 1.86, 1.79, 4.02, 3.58, 3.13, 1.79, -1.9, -1.58, -1.58, -1.26, 0.89, 2.68, 6.71, 10.25, 14.58, 18.16, 19.08, 15.65, 11.23, 8.68, 9.3, 12.37, 13.21, 13.32, 13.77, 13.32, 10.62, 3.32, 0.0, -1.26, 0.0, 0.54, 0.53, 0.73, 3.2, 4.03, 3.0, 2.8, 3.11, 2.98, 2.98, 4.11, 4.11, 4.11, 4.11, 3.7, 3.7, 3.87, 3.87, 3.82, 3.53, 3.53, 3.53, 3.58, 3.58, 3.58, 3.58, 3.58, 3.53, 3.82, 4.66, 5.75, 4.44, 3.87, 4.19, 4.9, 5.57, 5.78, 5.81, 5.81, 5.78, 5.7, 6.16, 6.47, 6.51, 6.51, 6.16, 5.78, 5.36, 5.36, 5.36, 5.36, 5.81, 5.78, 6.16, 5.7, 5.26, 4.77, 4.34, 3.58, 3.13, 2.4, 1.9, -0.0, -0.0, 1.41, 1.2, 2.41, 2.53, 3.39, 2.4, 2.4, 1.58, 0.89, -1.58, -1.2, -1.6, -0.95, -0.0, 2.15, 5.37, 7.97, 11.9, 16.55, 18.82, 16.47, 13.1, 9.42, 10.15, 10.81, 11.88, 13.29, 13.67, 13.77, 11.62, 7.15, 2.12, 0.0, 1.2, 3.13, 2.0, 2.07, 3.0, 2.88, 1.41, 1.35, 1.88, 2.2, 2.2, 4.11, 4.11, 4.11, 4.11, 4.11, 4.11, 4.3, 3.87, 3.87, 3.87, 3.98, 3.98, 3.58, 3.58, 4.02, 4.02, 3.98, 3.98, 4.77, 5.09, 5.24, 4.88, 4.44, 4.88, 5.24, 5.78, 5.81, 5.81, 5.79, 6.23, 6.16, 6.6, 6.51, 6.94, 6.97, 6.97, 6.61, 6.23, 5.81, 5.81, 5.81, 5.81, 5.81, 5.79, 5.78, 5.24, 5.26, 4.47, 4.02, 3.13, 2.68, 1.58, -0.0, -0.0, 1.27, 1.19, 1.41, 2.11, 3.48, 1.79, 0.0, 0.0, 0.0, -0.63, -0.6, -0.8, -0.8, -0.0, -0.0, 0.96, 2.06, 8.66, 15.13, 17.64, 5.21, 5.71, 7.67, 8.65, 8.51, 9.3, 10.9, 12.4, 12.77, 12.07, 10.73, 7.15, 3.13, 2.68, 5.64, 5.64, 5.69, 4.07, 2.51, 1.2, 0.65, 0.61, 1.16, 1.16, 4.6, 4.6, 4.19, 4.11, 4.11, 4.11, 4.11, 4.3, 3.87, 3.87, 3.98, 3.98, 4.02, 4.02, 4.02, 4.02, 3.98, 4.44, 4.77, 5.24, 5.33, 5.33, 5.33, 5.33, 5.34, 5.78, 5.81, 5.81, 5.81, 6.23, 6.23, 6.6, 6.61, 7.06, 7.07, 7.51, 7.51, 7.06, 6.68, 6.23, 6.23, 6.23, 6.23, 5.78, 5.78, 5.24, 5.7, 4.92, 4.02, 3.58, 2.68, 1.58, -0.0, -0.0, -0.0, -0.0, -0.0, 0.66, 2.15, 2.4, 0.89, 0.0, 0.0, -0.0, -0.71, -0.0, -0.0, -0.0, -0.0, -0.65, -1.49, 2.0, 17.44, 11.64, 0.0, -0.67, 2.87, 5.64, 7.11, 7.11, 8.51, 10.24, 10.8, 10.75, 10.49, 9.36, 6.55, 5.34, 7.6, 8.55, 6.9, 3.16, 1.0, 0.0, 0.0, 1.0, 1.88, 1.88, 4.6, 4.6, 4.6, 4.6, 4.6, 4.6, 4.19, 4.19, 4.3, 4.3, 4.43, 4.43, 3.98, 4.02, 4.47, 4.47, 4.47, 4.44, 4.88, 4.8, 5.24, 5.34, 5.78, 5.78, 5.78, 5.78, 5.81, 5.81, 5.81, 5.81, 6.23, 6.23, 6.68, 6.68, 7.06, 7.07, 7.51, 7.51, 7.13, 6.68, 6.68, 6.23, 6.23, 6.23, 5.78, 4.92, 5.81, 5.36, 4.47, 4.02, 3.58, 2.4, 1.2, -0.0, -0.0, -0.0, -0.0, -0.0, 1.49, 3.2, 3.13, 1.26, 0.0, -0.0, -0.0, -0.0, -0.0, 1.3, -0.0, -0.0, -1.34, 11.13, 17.88, 17.27, 9.33, 0.0, 0.0, 3.21, 4.97, 5.48, 6.51, 7.85, 9.2, 9.82, 9.3, 8.63, 7.6, 6.64, 5.46, 3.13, 4.41, 1.79, 0.45, 0.0, 0.0, 1.2, 1.88, 1.88, 4.6, 4.6, 4.6, 4.6, 4.6, 4.6, 4.6, 4.6, 4.34, 4.34, 4.34, 4.44, 4.44, 4.47, 4.47, 4.47, 4.47, 4.88, 4.88, 4.89, 5.24, 5.24, 5.34, 5.78, 5.78, 5.78, 5.81, 5.81, 5.81, 5.81, 5.81, 6.23, 6.23, 6.68, 6.68, 7.13, 7.13, 7.13, 7.13, 7.13, 6.68, 6.68, 6.68, 6.23, 5.79, 5.81, 5.81, 5.81, 5.81, 5.78, 4.89, 4.34, 2.8, 1.2, -0.0, -0.0, -0.0, -0.0, -0.0, 2.6, 4.02, 3.07, 0.95, -0.0, -0.0, -0.0, -0.0, -0.0, -0.0, 0.0, 1.55, 8.05, 15.16, 17.15, 18.65, 13.78, 4.02, 1.33, 3.3, 3.91, 4.79, 6.95, 8.66, 9.48, 8.65, 6.7, 6.64, 4.46, 2.17, 0.65, 2.07, 2.84, 2.49, 1.79, 1.24, 1.16, 1.61, 1.61, 4.6, 4.6, 4.6, 4.6, 4.6, 4.6, 4.6, 4.6, 4.77, 4.77, 4.77, 4.44, 4.44, 4.47, 4.47, 4.47, 4.92, 4.88, 4.89, 4.89, 4.89, 5.33, 5.33, 5.33, 5.78, 5.78, 5.78, 5.81, 5.81, 5.81, 5.81, 5.81, 6.26, 6.26, 6.71, 6.71, 7.13, 7.13, 7.13, 7.13, 7.13, 6.71, 6.71, 6.71, 6.26, 6.26, 5.81, 5.81, 6.26, 6.23, 6.23, 4.89, 4.02, 2.4, 1.2, -0.0, -0.0, -0.0, 0.89, 1.34, 3.13, 3.58, 2.68, 0.63, -0.0, -0.0, -0.0, -0.0, -0.0, 0.63, 1.6, 5.59, 10.62, 16.01, 17.91, 18.32, 17.16, 9.74, 3.69, 3.11, 3.87, 5.55, 7.77, 7.73, 6.98, 6.08, 6.4, 4.24, 2.17, 1.0, 2.4, 4.09, 5.32, 4.02, 2.15, 1.2, 1.16, 1.16, 4.6, 4.6, 4.6, 5.02, 5.02, 5.09, 5.02, 4.6, 4.6, 4.77, 4.77, 4.88, 4.89, 4.92, 4.92, 4.92, 4.92, 4.92, 4.89, 4.89, 4.89, 5.33, 5.33, 5.33, 5.33, 5.34, 5.78, 5.81, 5.81, 5.36, 5.81, 5.81, 5.81, 6.26, 6.26, 6.26, 6.26, 6.71, 6.71, 6.71, 7.15, 7.15, 6.71, 6.71, 6.71, 6.26, 6.26, 5.81, 6.26, 6.26, 6.26, 5.34, 4.44, 3.07, 1.2, 0.6, -0.0, -0.0, -0.0, 0.0, 1.34, 3.58, 4.02, 2.6, -0.0, -0.0, -0.0, -0.0, -0.0, 0.89, 1.49, 3.84, 7.47, 11.62, 13.49, 15.36, 19.58, 16.76, 6.7, 1.5, 3.11, 5.28, 6.48, 6.29, 5.78, 6.32, 6.7, 4.4, 2.68, 2.17, 2.68, 4.87, 6.71, 5.32, 3.32, 1.9, 1.2, 1.2, 5.02, 5.02, 5.02, 5.02, 5.09, 5.09, 5.09, 5.09, 4.66, 4.8, 4.8, 4.89, 4.89, 4.89, 4.92, 4.92, 4.92, 4.92, 4.89, 4.89, 4.89, 4.89, 4.89, 4.89, 5.33, 5.33, 5.33, 5.33, 5.36, 5.36, 5.36, 5.81, 5.81, 5.81, 5.81, 5.81, 6.26, 6.26, 6.26, 6.71, 6.71, 6.71, 6.71, 6.71, 6.68, 6.68, 6.26, 6.26, 5.81, 5.81, 5.81, 5.36, 4.44, 3.53, 2.6, 1.2, 1.26, -0.0, -0.0, 0.45, 0.45, 2.63, 3.58, 2.4, 0.65, -0.0, 1.4, 1.24, 0.89, 1.34, 2.12, 3.83, 6.07, 6.94, 8.82, 13.39, 17.88, 17.81, 6.26, 0.0, 1.56, 3.42, 4.57, 5.0, 4.87, 5.46, 5.69, 3.83, 3.51, 3.51, 3.32, 5.34, 7.89, 6.85, 3.82, 2.15, 1.24, 1.24, 5.09, 5.09, 5.09, 5.09, 5.09, 5.09, 5.09, 5.09, 5.09, 5.09, 5.24, 5.24, 5.33, 5.33, 5.36, 5.36, 5.36, 5.36, 4.92, 4.89, 4.89, 4.89, 4.89, 4.89, 4.89, 4.89, 4.89, 5.33, 5.36, 5.36, 5.36, 5.36, 5.81, 5.81, 5.81, 5.81, 5.81, 5.81, 6.26, 6.26, 6.71, 6.71, 6.26, 6.26, 5.81, 6.14, 6.26, 6.23, 5.26, 5.78, 5.36, 4.92, 4.47, 3.58, 2.63, 1.79, 0.89, 0.89, -0.0, -0.45, 0.45, 2.6, 2.68, 1.26, -0.0, -0.0, 1.33, 1.88, 1.7, 1.27, 2.12, 5.59, 6.94, 7.41, 9.23, 13.15, 15.03, 15.78, 10.28, 1.4, 0.0, 2.71, 3.8, 3.2, 3.47, 3.43, 2.15, 2.53, 3.49, 3.83, 3.32, 3.32, 6.22, 7.76, 4.0, 1.9, 1.6, 1.6, 5.09, 5.09, 5.09, 5.09, 5.09, 5.09, 5.09, 5.09, 5.09, 5.09, 5.24, 5.24, 5.33, 5.33, 5.33, 5.36, 5.36, 5.36, 5.36, 5.36, 4.89, 4.89, 4.89, 4.92, 4.89, 4.89, 4.89, 4.92, 4.92, 5.36, 5.34, 5.34, 5.34, 5.34, 5.34, 5.36, 5.36, 5.81, 5.81, 6.26, 6.71, 6.71, 6.23, 5.78, 4.92, 5.36, 5.81, 5.78, 4.34, 3.98, 4.02, 4.02, 4.47, 4.02, 3.13, 2.24, 1.79, 1.34, 0.0, 0.0, 0.63, 2.12, 1.79, -0.0, -0.0, -0.0, -0.0, 2.21, 3.07, 2.6, 3.22, 5.75, 8.82, 10.95, 11.9, 13.46, 14.11, 13.51, 12.87, 5.64, 1.33, 1.7, 2.86, 2.79, 2.68, 2.17, 2.24, 2.17, 2.4, 2.17, 1.34, 1.79, 4.02, 8.91, 6.22, 2.91, 1.7, 1.7, 5.09, 5.09, 5.09, 5.09, 5.09, 5.09, 5.09, 5.09, 5.09, 5.09, 5.24, 5.24, 5.33, 5.33, 5.34, 5.36, 5.36, 5.36, 5.36, 5.36, 4.92, 4.92, 4.92, 4.92, 4.92, 4.92, 4.92, 4.92, 4.92, 5.33, 5.33, 5.33, 5.33, 5.33, 4.89, 4.92, 5.36, 5.36, 5.81, 6.26, 6.23, 6.68, 6.23, 5.78, 4.8, 5.59, 5.31, 5.33, 4.02, 3.58, 3.58, 3.58, 3.58, 3.58, 3.13, 2.68, 2.24, 1.79, 1.34, 0.89, 1.2, 1.6, 0.89, -0.0, -0.0, -0.57, -0.6, 1.34, 3.58, 5.94, 3.16, 2.21, 6.51, 12.96, 16.25, 16.24, 15.12, 12.87, 11.88, 10.95, 4.37, 1.4, 1.73, 2.63, 3.54, 3.54, 3.87, 3.39, 3.04, 1.86, 1.26, 1.6, 3.07, 6.22, 8.49, 4.92, 3.13, 3.13, 5.09, 5.09, 5.09, 5.09, 5.09, 5.09, 5.09, 5.09, 5.09, 5.09, 5.24, 5.24, 5.24, 5.34, 5.34, 5.36, 5.36, 5.36, 5.36, 4.92, 4.92, 4.92, 4.92, 4.47, 4.47, 4.47, 4.47, 4.47, 5.36, 4.89, 4.89, 4.88, 4.88, 4.88, 4.88, 4.88, 4.92, 5.36, 5.34, 5.78, 6.23, 6.23, 6.23, 6.23, 6.16, 6.04, 6.16, 5.36, 4.47, 4.02, 4.02, 4.02, 4.02, 3.58, 3.13, 2.68, 2.24, 2.24, 2.17, 2.17, 1.2, 1.2, 0.45, 0.45, -0.0, -0.0, -0.0, 0.95, 3.2, 6.36, 2.17, 0.45, 1.6, 10.22, 19.22, 21.38, 14.7, 8.27, 8.32, 11.99, 10.6, 3.39, 2.17, 3.39, 4.34, 4.8, 5.57, 5.88, 5.75, 4.0, 2.6, 2.12, 2.6, 5.2, 7.94, 7.48, 5.32, 5.32, 5.09, 5.09, 5.09, 5.09, 5.09, 5.09, 5.09, 5.09, 5.09, 5.09, 5.24, 5.24, 5.24, 5.26, 5.34, 5.34, 5.36, 5.36, 5.36, 4.92, 4.92, 4.92, 4.92, 4.47, 4.92, 4.92, 4.88, 4.88, 4.88, 5.31, 4.44, 4.43, 4.43, 4.43, 4.43, 4.44, 4.44, 4.89, 5.33, 5.34, 5.78, 5.79, 6.23, 6.23, 6.23, 6.23, 5.81, 5.81, 5.36, 4.92, 4.92, 4.47, 4.47, 4.02, 4.02, 3.58, 3.13, 2.68, 2.68, 2.6, 2.17, 0.89, 1.79, 0.63, 0.6, -0.0, -0.0, 0.45, 2.23, 3.04, 2.4, 0.71, 1.2, 6.7, 18.35, 25.26, 12.37, 0.0, 1.0, 7.56, 10.98, 8.47, 5.36, 5.36, 5.34, 6.16, 6.94, 7.09, 7.47, 5.16, 4.24, 3.51, 3.51, 4.43, 6.67, 8.19, 7.01, 7.01, 5.09, 5.09, 5.09, 5.09, 5.09, 5.09, 5.09, 5.09, 5.09, 5.24, 5.24, 5.24, 5.24, 5.26, 5.78, 5.34, 5.34, 5.36, 4.92, 4.92, 4.92, 4.92, 4.92, 4.92, 4.92, 4.92, 4.88, 4.89, 5.24, 4.8, 4.44, 4.43, 3.98, 3.98, 3.98, 3.98, 4.44, 4.44, 4.89, 5.33, 5.34, 5.78, 5.78, 5.81, 5.81, 5.81, 5.81, 5.81, 5.36, 5.36, 4.92, 4.92, 4.92, 4.47, 4.47, 4.47, 4.02, 3.58, 2.68, 2.68, 0.89, 1.34, 1.26, 1.58, 0.6, 0.4, -0.0, -0.0, 0.45, 1.34, 1.49, 2.21, 4.02, 8.68, 15.9, 23.01, 16.52, 3.07, 1.34, 4.87, 9.28, 9.74, 8.38, 7.57, 7.15, 6.16, 6.84, 7.58, 8.24, 6.79, 5.16, 5.16, 4.87, 5.81, 6.26, 7.92, 7.92, 7.92, 5.09, 5.09, 5.09, 5.09, 5.09, 5.09, 5.09, 5.09, 5.09, 5.24, 5.24, 5.24, 5.26, 5.26, 5.34, 5.34, 5.33, 5.36, 4.92, 4.92, 4.92, 4.92, 4.92, 4.92, 4.92, 4.92, 4.89, 4.89, 4.8, 4.8, 4.88, 4.44, 3.98, 3.98, 3.98, 3.98, 4.43, 4.44, 4.88, 4.89, 5.33, 5.33, 5.36, 5.81, 5.81, 5.81, 5.36, 5.36, 5.36, 5.36, 4.92, 4.92, 4.92, 4.92, 4.92, 4.92, 4.47, 4.47, 4.02, 3.13, 2.24, 0.89, 1.26, 1.58, 1.9, 1.58, 0.45, 0.45, 0.45, -0.0, 0.57, 2.23, 7.6, 11.23, 14.17, 17.36, 18.52, 16.54, 13.21, 11.6, 10.6, 9.68, 8.06, 6.22, 6.22, 6.04, 6.79, 8.19, 7.76, 7.92, 7.01, 6.07, 6.66, 6.71, 6.71, 6.71, 7.94, 7.94, 5.09, 5.09, 5.09, 5.09, 5.09, 5.09, 5.09, 5.09, 5.09, 5.24, 5.24, 5.24, 5.24, 5.26, 5.34, 5.34, 5.33, 5.33, 5.33, 4.92, 4.92, 4.92, 4.92, 4.92, 4.92, 4.92, 4.89, 4.89, 4.89, 4.88, 4.44, 4.44, 3.98, 3.98, 3.98, 3.98, 4.43, 4.44, 4.44, 4.88, 4.88, 4.89, 4.92, 5.36, 5.36, 5.36, 5.36, 5.36, 5.36, 4.92, 4.92, 4.92, 4.47, 4.92, 4.92, 4.92, 4.92, 4.47, 4.47, 3.58, 3.13, 2.24, 1.79, 0.63, 1.2, 2.4, 0.45, 0.45, 0.45, -0.0, -0.0, 1.24, 5.94, 11.18, 13.32, 13.39, 14.67, 17.91, 20.43, 20.55, 16.44, 9.45, 3.32, 2.68, 3.32, 6.36, 7.92, 7.92, 7.92, 7.92, 8.01, 7.56, 8.01, 8.05, 8.05, 8.05, 7.15, 7.15, 5.09, 5.09, 5.09, 5.09, 5.09, 5.09, 5.09, 5.09, 5.09, 5.24, 5.24, 5.24, 5.24, 5.24, 5.33, 5.33, 5.33, 5.33, 5.33, 4.89, 4.89, 4.92, 4.92, 4.92, 4.92, 4.92, 4.92, 4.89, 4.89, 4.88, 4.44, 4.43, 3.98, 3.98, 3.98, 3.98, 3.98, 4.43, 4.44, 4.44, 4.44, 4.47, 4.47, 5.36, 4.89, 5.36, 5.36, 5.36, 4.92, 4.92, 4.92, 4.92, 4.47, 4.47, 4.92, 4.88, 4.88, 4.44, 3.98, 4.02, 3.58, 3.13, 1.79, 0.63, 1.2, 2.68, 0.63, 0.63, -0.0, -0.0, -0.0, -0.0, 3.16, 11.88, 13.86, 12.77, 12.3, 15.93, 21.23, 22.95, 18.1, 8.38, 2.68, 2.24, 3.07, 5.32, 7.12, 7.56, 7.57, 8.01, 8.01, 8.01, 8.05, 8.94, 8.94, 8.49, 8.49, 8.05, 5.09, 5.09, 5.09, 5.09, 5.09, 5.09, 5.09, 5.09, 5.24, 5.24, 5.24, 5.24, 5.24, 5.24, 5.33, 5.33, 5.33, 5.33, 5.33, 4.89, 4.89, 4.92, 4.92, 5.36, 5.36, 5.36, 5.36, 4.89, 4.89, 4.88, 4.44, 4.43, 3.98, 3.98, 3.98, 3.98, 3.98, 3.98, 3.98, 4.43, 4.43, 3.98, 4.02, 4.47, 4.88, 5.36, 5.33, 4.89, 4.88, 4.92, 4.92, 4.88, 4.44, 4.44, 4.44, 4.88, 4.88, 4.44, 3.98, 3.98, 3.53, 3.07, 2.24, 1.34, 1.34, 2.24, 1.79, 0.45, 0.32, -0.0, -0.0, -0.0, 2.23, 11.15, 16.54, 14.22, 11.87, 14.83, 19.01, 19.95, 15.18, 9.36, 4.92, 3.13, 3.13, 4.92, 6.71, 7.15, 7.15, 7.6, 7.6, 7.6, 8.05, 8.94, 8.94, 8.91, 8.91, 8.49, 5.09, 5.09, 5.09, 5.09, 5.09, 5.09, 5.09, 5.09, 5.24, 5.24, 5.24, 5.24, 5.24, 5.24, 5.24, 5.33, 5.33, 5.33, 5.33, 5.33, 5.33, 5.36, 5.36, 5.36, 5.36, 5.36, 5.36, 4.92, 4.89, 4.88, 4.44, 4.43, 3.98, 3.98, 3.98, 3.98, 3.98, 3.98, 3.98, 3.98, 3.98, 3.98, 3.98, 3.58, 4.47, 5.36, 5.34, 4.44, 4.47, 4.47, 4.44, 4.44, 4.44, 4.44, 4.44, 4.77, 4.77, 4.3, 3.98, 3.98, 3.53, 3.07, 2.24, 2.24, 2.24, 2.68, 1.34, 0.89, 0.45, -0.0, -0.0, -0.0, 1.79, 8.49, 14.58, 14.87, 14.3, 14.21, 15.61, 13.44, 9.39, 7.12, 7.57, 5.81, 4.02, 4.92, 6.26, 6.71, 6.71, 7.6, 7.6, 7.6, 8.01, 8.91, 8.91, 8.9, 8.46, 8.91, 5.09, 5.09, 5.09, 5.09, 5.09, 5.09, 5.09, 5.24, 5.24, 5.24, 5.24, 5.24, 5.24, 5.24, 5.24, 5.24, 5.24, 5.24, 5.33, 5.33, 5.33, 5.33, 5.36, 5.36, 5.36, 5.36, 5.36, 4.92, 4.92, 4.88, 4.44, 4.43, 3.98, 3.98, 3.53, 3.53, 3.53, 3.53, 3.53, 3.53, 3.98, 3.98, 3.98, 3.98, 4.3, 3.95, 5.33, 4.47, 4.02, 4.47, 4.44, 4.44, 4.44, 4.34, 4.34, 4.77, 4.34, 3.87, 3.87, 3.39, 3.39, 2.91, 2.68, 2.68, 2.68, 2.68, 1.34, 1.79, -0.0, -0.0, -0.0, 0.0, 1.26, 3.04, 8.05, 14.81, 18.52, 18.33, 13.05, 5.34, 2.24, 3.09, 4.87, 6.26, 4.92, 4.02, 4.47, 5.81, 6.71, 7.56, 8.01, 8.01, 7.92, 8.8, 8.8, 8.36, 8.36, 8.36, 5.09, 5.09, 5.09, 5.09, 5.09, 5.09, 5.24, 5.24, 5.24, 5.24, 5.24, 5.24, 5.24, 5.24, 5.24, 5.24, 5.24, 5.24, 5.24, 5.33, 5.33, 5.33, 5.36, 5.36, 5.36, 5.36, 5.36, 4.92, 4.92, 4.88, 4.44, 4.43, 3.98, 3.98, 3.53, 3.53, 3.53, 3.53, 3.53, 3.53, 3.53, 3.98, 3.98, 4.43, 4.34, 4.8, 4.92, 4.47, 4.02, 4.47, 4.44, 4.88, 4.77, 4.77, 4.34, 4.34, 4.3, 3.87, 3.82, 3.39, 3.39, 2.91, 2.4, 2.4, 2.68, 2.68, 2.24, 1.79, -0.0, -0.0, -0.0, 0.0, 0.8, 1.9, 2.6, 10.22, 17.86, 22.22, 16.02, 4.02, 1.79, 3.09, 5.78, 8.05, 7.15, 6.26, 4.47, 5.32, 6.66, 7.92, 8.82, 8.67, 8.24, 8.63, 8.19, 7.71, 7.71, 7.71, 5.09, 5.09, 5.09, 5.09, 5.09, 5.24, 5.24, 5.24, 5.24, 5.24, 5.24, 5.24, 5.24, 5.24, 5.24, 5.24, 5.24, 5.24, 5.24, 5.33, 5.33, 5.33, 5.36, 5.36, 5.36, 5.36, 5.36, 5.36, 4.92, 4.88, 4.44, 4.43, 3.98, 3.97, 3.53, 3.53, 3.53, 3.53, 3.53, 3.53, 3.53, 3.98, 3.98, 3.98, 4.44, 4.44, 4.47, 4.47, 4.47, 4.47, 4.88, 4.89, 4.77, 4.77, 4.6, 4.11, 3.87, 3.82, 3.39, 3.39, 3.39, 3.32, 2.91, 2.8, 2.4, 2.68, 2.24, 1.58, -0.0, -0.0, 0.45, 0.0, 0.71, 1.88, 3.79, 6.08, 12.42, 18.62, 20.01, 15.36, 10.68, 10.1, 11.09, 11.18, 9.81, 8.38, 7.01, 6.55, 7.28, 8.67, 9.11, 8.91, 8.91, 8.4, 7.98, 7.47, 7.47, 7.47, 5.09, 5.09, 5.09, 5.09, 5.24, 5.24, 5.24, 5.24, 5.24, 5.24, 4.8, 4.8, 4.8, 4.8, 5.24, 5.24, 5.24, 5.24, 5.24, 5.33, 5.33, 5.33, 5.36, 5.36, 5.36, 5.36, 5.36, 5.36, 4.89, 4.88, 4.44, 4.43, 3.98, 3.53, 3.53, 3.53, 3.09, 3.07, 3.39, 3.39, 3.39, 3.82, 3.87, 3.98, 3.98, 4.43, 4.44, 4.44, 4.88, 4.89, 4.89, 4.8, 5.24, 4.8, 4.6, 3.7, 3.82, 3.39, 3.39, 3.39, 3.39, 3.2, 3.07, 2.68, 2.8, 2.68, 2.24, 0.63, -0.0, -0.0, 0.0, 0.4, 1.24, 1.88, 3.14, 3.07, 6.26, 11.96, 16.54, 17.27, 16.37, 17.38, 17.39, 14.29, 10.18, 7.98, 7.73, 7.73, 8.24, 8.14, 9.4, 8.55, 9.08, 8.24, 8.0, 7.03, 7.03, 7.03, 5.09, 5.09, 5.09, 5.24, 5.24, 5.24, 5.24, 5.24, 5.24, 4.8, 4.8, 4.8, 4.8, 4.8, 5.24, 5.24, 5.24, 5.24, 5.24, 5.33, 5.33, 5.33, 5.36, 5.36, 5.36, 5.36, 5.36, 5.36, 4.89, 4.89, 4.44, 4.43, 3.98, 3.53, 3.53, 3.09, 3.07, 2.91, 3.32, 3.39, 3.39, 3.39, 3.87, 3.98, 3.98, 3.98, 4.44, 4.44, 4.88, 4.8, 5.24, 5.24, 5.24, 5.09, 4.6, 3.7, 3.39, 3.39, 3.39, 3.39, 3.39, 3.2, 3.2, 3.07, 2.91, 2.68, 2.24, 0.89, 0.45, -0.0, 0.0, 0.0, 0.99, 1.9, 2.4, 2.24, 2.8, 8.14, 10.68, 10.9, 13.41, 18.72, 21.82, 17.46, 11.09, 6.13, 6.63, 8.58, 8.68, 8.58, 8.72, 8.05, 8.63, 8.05, 7.67, 6.7, 6.7, 6.7, 5.09, 5.09, 5.24, 5.24, 5.24, 5.24, 5.24, 5.24, 4.8, 4.8, 4.77, 4.77, 4.8, 4.8, 4.8, 4.8, 4.8, 4.8, 4.89, 5.33, 5.33, 5.33, 5.36, 5.36, 5.36, 5.36, 5.36, 5.36, 5.33, 4.89, 4.44, 4.43, 3.98, 3.53, 3.53, 3.07, 2.91, 2.91, 3.32, 3.39, 3.39, 3.39, 3.53, 3.53, 3.98, 3.98, 4.43, 4.44, 4.77, 4.8, 5.24, 5.09, 5.09, 5.09, 4.11, 3.7, 3.39, 3.32, 2.91, 3.39, 3.2, 3.2, 3.2, 3.07, 2.68, 2.4, 2.24, 2.24, 1.34, 0.45, 0.0, 0.0, 0.6, 0.95, 1.34, 1.49, 2.5, 5.09, 6.32, 6.14, 9.56, 16.3, 21.51, 20.39, 17.07, 11.6, 7.54, 7.9, 8.6, 7.02, 7.02, 7.33, 7.69, 7.32, 6.7, 6.7, 6.7, 6.7, 5.24, 5.24, 5.24, 5.24, 5.24, 5.24, 5.24, 4.8, 4.8, 4.77, 4.77, 4.77, 4.8, 4.8, 4.8, 4.8, 4.8, 4.8, 4.89, 4.89, 5.33, 5.33, 5.36, 5.36, 5.36, 5.36, 5.36, 5.36, 5.33, 4.88, 4.44, 3.98, 3.98, 3.53, 3.53, 2.91, 3.32, 3.32, 3.39, 3.39, 3.39, 3.39, 3.53, 3.53, 3.53, 3.98, 3.98, 4.34, 4.77, 4.8, 5.09, 5.09, 5.09, 5.09, 4.11, 3.7, 3.2, 3.32, 3.32, 3.39, 3.2, 3.6, 3.6, 3.07, 2.5, 2.8, 2.68, 2.24, 1.34, 0.0, 0.0, 0.0, 0.0, 0.45, 0.89, 1.26, 1.9, 2.3, 4.03, 5.21, 7.68, 13.04, 17.27, 19.08, 21.28, 18.59, 11.15, 6.32, 5.94, 6.28, 5.94, 6.32, 7.02, 7.02, 6.64, 6.68, 6.68, 6.68, 5.24, 5.24, 5.24, 5.24, 5.24, 5.24, 5.24, 4.8, 4.77, 4.77, 4.77, 4.77, 4.8, 4.8, 4.8, 4.8, 4.8, 4.8, 4.89, 4.89, 4.89, 5.36, 5.36, 5.36, 5.36, 5.36, 5.36, 5.36, 4.89, 4.88, 4.44, 3.98, 3.98, 3.53, 3.53, 3.39, 3.39, 3.2, 3.2, 3.2, 3.39, 3.39, 3.09, 3.53, 3.53, 3.98, 3.98, 4.34, 4.77, 4.66, 5.09, 5.09, 5.09, 4.6, 4.11, 3.7, 3.6, 3.2, 3.39, 3.39, 3.6, 3.6, 3.6, 3.07, 2.5, 1.26, 1.2, 1.34, 0.89, 0.45, 0.0, 0.0, 0.0, 0.0, 0.45, 0.6, 1.2, 0.7, 1.55, 3.9, 6.06, 9.05, 11.54, 16.37, 20.68, 21.77, 5.44, 1.36, 2.9, 5.0, 5.69, 4.56, 5.3, 6.32, 6.01, 4.43, 4.43, 4.43, 5.24, 5.24, 5.24, 5.24, 5.24, 5.24, 4.8, 4.77, 4.77, 4.77, 4.77, 4.77, 4.77, 4.77, 4.77, 4.8, 4.8, 4.8, 4.89, 4.89, 4.89, 5.36, 5.36, 5.36, 5.36, 5.36, 5.36, 5.36, 4.92, 4.88, 4.44, 3.98, 3.98, 3.53, 3.39, 3.39, 3.2, 3.2, 3.6, 3.2, 3.39, 3.09, 3.09, 3.53, 3.53, 3.98, 3.87, 4.34, 4.77, 4.6, 5.09, 5.02, 4.6, 4.11, 4.11, 3.7, 3.6, 3.6, 3.6, 3.6, 3.6, 3.6, 3.6, 3.2, 2.68, 1.26, 1.26, 0.95, 0.45, 0.45, 0.45, 0.45, 0.45, 0.0, 0.0, -0.0, -0.0, -0.0, 1.16, 2.51, 5.09, 6.08, 7.69, 12.94, 20.23, 18.2, 7.6, 0.0, 0.0, 3.38, 5.72, 4.74, 3.38, 3.43, 2.53, 1.58, 1.58, 1.58, 5.24, 5.24, 5.24, 5.24, 5.24, 4.8, 4.77, 4.77, 4.77, 4.77, 4.77, 4.77, 4.77, 4.77, 4.77, 4.77, 4.77, 4.89, 4.89, 4.89, 4.89, 5.33, 5.36, 5.36, 5.36, 5.36, 5.36, 5.36, 4.92, 4.88, 4.44, 3.98, 3.98, 3.82, 3.39, 3.39, 3.6, 3.6, 3.6, 3.39, 3.39, 3.09, 3.09, 3.09, 3.53, 3.98, 3.87, 4.34, 4.6, 4.6, 4.6, 4.6, 4.6, 4.11, 4.11, 3.6, 3.6, 3.6, 3.6, 3.7, 4.11, 4.11, 3.6, 3.6, 2.15, 1.26, 0.8, 0.57, 0.0, 0.0, 0.0, 0.0, 0.89, 0.89, -0.45, 0.45, -0.0, -0.0, 0.54, 2.21, 3.14, 4.46, 6.0, 11.4, 22.35, 19.67, 9.83, 0.0, -2.6, 0.57, 4.75, 5.09, 2.15, 1.49, 0.6, 0.0, 0.0, 0.0, 5.24, 5.24, 5.24, 5.24, 5.24, 4.8, 4.77, 4.77, 4.77, 4.77, 4.77, 4.77, 4.77, 4.77, 4.77, 4.77, 4.77, 4.88, 4.89, 4.89, 4.89, 4.89, 5.36, 5.36, 5.36, 5.36, 5.36, 5.36, 4.92, 4.44, 4.44, 3.98, 3.98, 3.87, 3.82, 3.6, 3.6, 3.6, 3.39, 3.39, 3.39, 3.09, 3.09, 3.53, 3.53, 3.87, 3.87, 4.3, 4.6, 4.6, 4.6, 4.6, 4.6, 4.11, 3.6, 3.6, 3.6, 3.6, 4.0, 3.88, 3.88, 3.88, 3.88, 3.35, 2.15, 1.49, 0.57, 0.71, 0.0, 0.0, -0.57, 0.0, 0.8, 1.6, 0.45, 0.0, -0.0, -0.0, 1.58, 2.4, 2.5, 3.45, 5.86, 19.67, 22.34, 20.55, 12.96, 0.99, -2.73, -0.66, 2.51, 3.78, 1.61, 0.54, 0.0, 0.45, 0.45, 0.45, 5.24, 5.24, 5.24, 5.24, 4.8, 4.77, 4.77, 4.77, 4.77, 4.77, 4.77, 4.77, 4.77, 4.77, 4.77, 4.77, 4.88, 4.88, 4.88, 4.89, 4.89, 4.92, 5.36, 5.36, 5.36, 5.36, 5.36, 4.92, 4.92, 4.44, 4.44, 3.98, 3.87, 3.87, 3.87, 3.7, 3.6, 3.82, 3.39, 3.39, 3.53, 3.09, 3.09, 3.53, 3.53, 3.87, 3.87, 4.19, 4.6, 4.6, 4.6, 4.19, 4.11, 3.7, 3.6, 3.6, 3.6, 3.35, 3.88, 3.88, 4.27, 4.27, 3.88, 3.72, 2.68, 1.58, 1.24, 0.54, 0.0, 0.0, 0.0, 0.0, 0.0, 0.57, 0.0, 0.0, 0.45, 0.63, 1.79, 2.17, 2.17, 2.91, 11.98, 18.76, 21.41, 20.1, 13.41, 1.58, -2.79, -1.13, 1.61, 2.53, 0.0, -0.53, 0.0, -0.6, -0.6, -0.6, 5.24, 5.24, 5.24, 4.8, 4.77, 4.77, 4.77, 4.77, 4.77, 4.77, 4.77, 4.77, 4.77, 4.77, 4.77, 4.77, 4.88, 4.88, 4.88, 4.89, 4.89, 4.92, 5.36, 5.36, 5.36, 5.36, 5.36, 4.92, 4.88, 4.44, 4.44, 4.3, 4.3, 3.87, 3.7, 3.7, 3.82, 3.39, 3.39, 3.53, 3.53, 3.09, 3.53, 3.53, 3.39, 3.87, 4.3, 4.19, 4.6, 4.6, 4.11, 4.11, 3.7, 3.6, 3.6, 3.6, 3.6, 3.35, 3.88, 4.27, 4.0, 4.0, 4.0, 3.64, 3.35, 2.15, 1.24, 0.57, 0.57, 0.57, 0.57, 0.0, 0.0, 0.0, 0.0, -0.6, 0.0, 0.6, 2.12, 2.17, 2.24, 2.68, 9.72, 16.82, 19.73, 19.07, 10.26, -0.57, -3.79, -1.13, 1.16, 1.2, -0.54, -1.4, -1.49, -1.86, -1.86, -1.86, 5.24, 5.24, 4.8, 4.8, 4.77, 4.88, 4.88, 4.88, 4.77, 4.77, 4.77, 4.77, 4.77, 4.77, 4.77, 4.88, 4.88, 4.88, 4.88, 4.88, 4.89, 4.92, 4.92, 5.36, 5.36, 5.36, 5.36, 4.92, 4.88, 4.44, 4.44, 4.34, 4.3, 4.3, 3.87, 3.87, 3.82, 3.39, 3.39, 3.53, 3.53, 3.53, 3.53, 3.53, 3.87, 3.87, 4.11, 4.19, 4.6, 4.19, 4.11, 4.11, 3.6, 3.6, 3.6, 3.6, 3.35, 3.72, 3.88, 4.0, 4.0, 4.37, 4.0, 4.0, 3.43, 2.79, 1.9, 1.24, 0.65, 0.57, 1.26, 0.63, 0.0, -0.57, -0.6, 0.0, 0.0, 0.0, 1.2, 1.9, 1.86, 3.07, 6.71, 13.39, 18.17, 19.07, 7.94, -2.6, -4.66, -1.88, -0.65, -1.49, -2.17, -1.86, -2.6, -3.13, -3.13, -3.13, 4.8, 4.8, 4.8, 4.8, 4.88, 4.89, 4.88, 4.88, 4.77, 4.77, 4.34, 4.34, 4.34, 4.34, 4.34, 4.44, 4.44, 4.88, 4.88, 4.88, 4.92, 4.92, 4.92, 5.36, 5.36, 5.36, 5.36, 4.89, 4.88, 4.88, 4.34, 4.34, 4.3, 4.3, 3.87, 3.87, 3.39, 3.39, 3.53, 3.53, 3.53, 3.53, 3.53, 3.39, 3.87, 3.87, 4.11, 4.19, 4.19, 4.11, 4.11, 3.6, 3.6, 3.6, 3.6, 3.35, 3.72, 3.72, 4.0, 4.0, 4.07, 4.07, 4.07, 3.73, 3.48, 3.43, 2.23, 1.61, 1.16, 0.71, 0.57, 0.6, 0.0, -1.24, -1.26, 0.0, 0.0, 0.0, 0.53, 1.4, 1.61, 2.5, 5.34, 10.62, 16.09, 19.22, 9.81, -1.79, -4.92, -3.13, -3.58, -3.58, -2.68, -1.79, -2.24, -3.13, -3.13, -3.13, 4.8, 4.8, 4.8, 4.89, 4.89, 4.89, 4.88, 4.88, 4.77, 4.34, 4.34, 4.34, 4.34, 4.34, 4.44, 4.44, 4.44, 4.44, 4.44, 4.88, 4.92, 4.92, 4.92, 5.36, 5.36, 5.36, 5.33, 4.89, 4.88, 4.77, 4.77, 4.34, 4.34, 4.3, 3.87, 3.87, 3.39, 3.53, 3.53, 3.53, 3.53, 3.39, 3.39, 3.82, 3.87, 4.11, 4.11, 4.11, 4.11, 4.11, 4.11, 3.6, 3.6, 3.6, 3.35, 3.72, 3.72, 4.0, 4.0, 4.07, 4.07, 4.07, 4.07, 4.07, 3.79, 3.48, 2.86, 2.23, 1.6, 0.65, 0.65, 0.0, -0.54, -1.0, -0.54, 0.0, 0.71, 0.54, 0.61, 0.61, 1.4, 1.88, 4.46, 8.67, 13.96, 17.81, 15.2, 2.17, -4.02, -4.73, -4.87, -4.92, -3.13, -2.24, -2.68, -2.68, -2.68, -2.68, 4.89, 4.89, 4.89, 4.89, 4.89, 4.89, 4.88, 4.88, 4.88, 4.44, 4.44, 4.44, 4.44, 4.44, 4.44, 4.44, 4.44, 4.44, 4.44, 4.47, 4.92, 4.92, 4.92, 4.92, 5.36, 5.36, 4.89, 4.89, 4.89, 4.77, 4.77, 4.34, 4.34, 3.87, 3.87, 3.87, 3.53, 3.53, 3.53, 3.39, 3.39, 3.39, 3.39, 3.82, 3.87, 4.11, 4.11, 4.11, 4.11, 4.11, 3.7, 3.6, 3.6, 3.35, 3.72, 3.43, 4.0, 4.0, 3.73, 4.07, 4.07, 3.79, 3.79, 3.79, 3.49, 3.49, 3.2, 2.86, 2.22, 1.76, 1.19, 0.0, 0.0, -0.54, 0.0, 0.0, 0.0, 0.54, 0.0, 0.0, 0.65, 1.88, 4.46, 8.55, 13.29, 16.69, 17.36, 11.6, 1.2, -3.13, -4.43, -4.92, -4.02, -3.13, -2.68, -2.24, -2.24, -2.24, 4.89, 4.89, 4.89, 4.89, 4.89, 4.88, 4.88, 4.88, 4.44, 4.44, 4.44, 4.44, 4.44, 4.44, 4.44, 4.44, 4.44, 4.44, 4.47, 4.47, 4.47, 4.92, 4.92, 4.92, 4.92, 4.89, 4.89, 4.89, 4.8, 4.77, 4.77, 4.34, 4.34, 3.87, 3.87, 3.87, 3.39, 3.39, 3.39, 3.39, 3.39, 3.39, 3.39, 3.87, 3.7, 4.11, 4.11, 4.11, 4.11, 4.11, 3.6, 3.35, 3.35, 3.72, 3.43, 4.0, 4.0, 3.73, 4.07, 4.07, 3.79, 4.11, 3.79, 3.49, 3.49, 3.49, 3.49, 3.12, 2.44, 2.2, 1.73, 0.61, 0.0, 0.0, 0.0, 0.0, 0.0, 0.0, 0.0, 0.0, 0.53, 2.07, 4.43, 8.24, 12.87, 16.25, 16.37, 15.18, 10.26, 2.6, -1.79, -3.13, -3.13, -2.68, -2.24, -1.79, -1.79, -1.79, 4.89, 4.89, 4.89, 4.89, 4.89, 4.88, 4.88, 4.88, 4.44, 4.44, 4.44, 4.44, 4.44, 4.44, 4.44, 4.44, 4.44, 4.47, 4.47, 4.47, 4.47, 4.47, 4.92, 4.92, 4.92, 4.89, 4.89, 4.8, 4.8, 4.77, 4.77, 4.34, 4.3, 3.87, 3.87, 3.87, 3.39, 3.39, 3.39, 3.39, 3.39, 3.39, 3.39, 3.6, 3.7, 3.7, 4.11, 4.11, 4.11, 3.88, 3.35, 3.35, 3.35, 3.72, 4.0, 4.0, 3.73, 4.07, 4.07, 4.07, 3.79, 4.11, 4.11, 3.78, 3.49, 3.22, 3.22, 2.84, 2.84, 2.2, 2.2, 1.73, 1.6, 0.45, 0.0, 0.0, 0.0, 0.0, 0.0, 0.0, 0.61, 2.3, 4.74, 7.67, 11.21, 14.44, 15.57, 14.75, 13.86, 10.28, 3.58, 0.0, -0.89, -0.63, -0.63, 0.0, 0.0, 0.0, 4.89, 4.89, 4.89, 4.89, 4.89, 4.88, 4.88, 4.88, 4.44, 4.44, 4.44, 4.44, 4.44, 4.44, 4.44, 4.44, 4.44, 4.47, 4.47, 4.47, 4.47, 4.47, 4.92, 4.92, 4.92, 4.89, 4.89, 4.8, 4.8, 4.77, 4.77, 4.34, 4.3, 3.87, 3.87, 3.87, 3.39, 3.39, 3.39, 3.39, 3.39, 3.39, 3.39, 3.6, 3.7, 3.7, 4.11, 4.11, 4.11, 3.88, 3.35, 3.35, 3.35, 3.72, 4.0, 4.0, 3.73, 4.07, 4.07, 4.07, 3.79, 4.11, 4.11, 3.78, 3.49, 3.22, 3.22, 2.84, 2.84, 2.2, 2.2, 1.73, 1.6, 0.45, 0.0, 0.0, 0.0, 0.0, 0.0, 0.0, 0.61, 2.3, 4.43, 7.07, 9.74, 13.05, 14.67, 14.73, 13.86, 12.5, 10.26, 4.92, 2.68, 1.7, 1.7, 1.7, 1.7, 1.7]}, {"header": {"dx": 0.06612293990616946, "dy": 0.0552356325346848, "nx": 98, "ny": 59, "la1": 35.046912555036876, "la2": 31.78801023549047, "lo1": -121.43107172385933, "lo2": -114.95102361305473, "refTime": "2026041008", "parameterCategory": 1, "parameterNumber": 3}, "data": [0.65, 1.2, 1.9, 1.9, 1.86, 2.24, 2.24, 2.6, 2.4, 2.4, 2.12, 1.34, 1.79, 1.79, 1.26, -0.0, -0.0, -0.0, 1.2, 1.79, 2.68, 3.04, 3.45, 2.84, 2.41, 2.07, 2.3, 3.16, 2.4, 1.79, 1.26, 0.71, -0.0, -0.0, -0.0, -0.0, 0.0, 0.0, 0.0, 0.0, 0.0, 0.0, -0.95, -1.49, -2.2, -3.69, -4.0, -4.71, -3.15, 0.0, 3.72, 5.43, 5.69, 6.01, 6.01, 6.32, 6.24, 6.53, 5.64, 5.64, 4.5, 4.5, 4.83, 3.8, 4.26, 4.71, 5.38, 5.41, 5.51, 5.29, 4.65, 3.91, 3.02, 3.06, 2.18, 2.44, 2.23, 0.0, -0.6, -0.61, -0.7, -1.84, -2.53, -2.86, -3.74, -3.97, -4.02, -3.51, -3.84, -4.83, -5.41, -6.62, -7.12, -7.01, -7.01, -6.21, -5.3, -5.52, 0.65, 1.2, 1.24, 1.86, 1.86, 2.12, 2.24, 2.24, 2.17, 2.17, 1.79, 1.79, 1.34, 1.34, 1.79, -0.0, -0.0, -0.0, 0.95, 1.7, 2.24, 2.68, 3.2, 4.98, 3.16, 2.15, 1.4, 1.9, 1.86, 2.68, 2.68, 2.17, 1.26, -0.0, -0.0, -0.0, -0.0, 0.0, 0.45, 0.45, 0.0, -0.89, -2.23, -3.84, -5.06, -5.49, -5.38, -2.9, 0.0, 3.79, 5.43, 5.37, 5.3, 5.69, 5.69, 6.01, 5.94, 6.14, 5.64, 5.28, 4.71, 4.71, 4.0, 3.91, 4.56, 5.59, 5.64, 5.95, 5.51, 5.29, 4.81, 3.91, 3.02, 2.35, 2.18, 2.23, 3.02, 0.0, -0.6, -0.61, -0.7, -1.84, -2.53, -2.86, -3.74, -3.97, -4.02, -3.51, -3.84, -4.83, -5.41, -6.62, -7.12, -7.01, -7.01, -6.21, -5.3, -5.52, 0.65, 0.54, 1.24, 1.24, 1.86, 1.7, 1.79, 1.79, 2.12, 2.12, 1.79, 1.79, 1.34, 1.34, 0.89, 0.89, 0.0, -0.0, 0.6, 0.8, 1.26, 1.79, 2.24, 3.2, 5.24, 4.11, 2.84, 1.86, 1.34, 2.6, 3.58, 4.02, 3.58, 2.24, 1.2, 0.0, 0.0, 0.0, 0.0, 0.0, -0.89, -2.91, -4.46, -6.44, -6.7, -5.69, -2.98, 0.76, 3.79, 4.74, 4.65, 4.95, 4.95, 5.37, 5.06, 5.69, 6.32, 5.38, 5.28, 4.71, 4.4, 3.88, 3.8, 4.56, 4.95, 6.01, 6.14, 6.97, 6.33, 6.1, 5.38, 3.96, 2.95, 1.6, 1.4, 0.8, 1.52, 0.69, -0.89, -0.54, -0.71, -1.2, -2.21, -3.22, -2.86, -3.45, -3.51, -3.58, -4.84, -6.14, -7.12, -7.79, -8.66, -8.37, -7.9, -6.97, -5.52, -4.6, 0.65, 0.54, 1.24, 1.24, 1.86, 1.7, 1.7, 1.79, 1.79, 1.7, 1.79, 1.34, 1.34, 0.89, 0.89, 0.0, 0.0, 0.0, -0.0, 0.6, 1.2, 1.2, 1.34, 2.17, 3.07, 5.59, 5.09, 2.86, 1.79, 2.4, 3.32, 4.41, 4.92, 4.38, 3.58, 2.41, 1.4, 0.0, -0.95, -1.26, -2.5, -4.46, -5.69, -5.09, -3.79, -1.33, 1.4, 4.11, 4.74, 4.65, 4.36, 4.36, 4.36, 4.74, 5.43, 5.69, 5.49, 5.38, 4.71, 4.71, 3.78, 3.88, 4.03, 4.74, 5.77, 6.73, 7.27, 7.85, 7.67, 7.34, 6.4, 4.61, 2.28, 1.36, 0.0, 0.0, 0.0, 0.0, -0.95, -1.16, -1.2, -1.26, -1.9, -2.84, -2.3, -2.21, -2.17, -3.95, -6.44, -8.01, -8.56, -8.66, -8.76, -7.73, -5.64, -3.69, -3.09, -3.09, 0.65, 0.54, 1.24, 1.24, 1.58, 1.49, 1.7, 1.79, 1.79, 1.6, 1.34, 1.34, 1.34, 0.89, 0.0, 0.0, 0.0, 0.0, 0.0, -0.0, 0.45, 0.89, 1.34, 1.7, 2.4, 3.2, 5.24, 5.59, 3.6, 2.68, 2.4, 2.8, 3.07, 3.07, 2.53, 2.53, 1.99, 0.79, -0.61, -2.5, -3.14, -2.79, -1.84, -0.7, 0.0, 1.49, 4.01, 4.43, 4.36, 4.36, 4.01, 4.01, 4.01, 4.43, 5.06, 5.59, 4.71, 4.6, 4.71, 3.95, 3.11, 3.91, 4.74, 5.46, 7.07, 7.41, 6.95, 7.59, 8.46, 7.69, 7.11, 5.51, 4.24, 2.41, 0.0, -1.3, -2.35, -0.76, 0.0, -2.0, -2.07, -2.15, -2.5, -2.79, -3.22, -2.5, -3.13, -6.08, -8.6, -9.4, -8.66, -7.63, -7.18, -1.49, 0.0, 0.0, -1.55, -2.99, 0.54, 0.54, 1.24, 1.24, 1.26, 1.26, 1.26, 1.6, 1.34, 1.34, 0.89, 0.45, 0.0, 0.0, 0.0, 0.0, 0.0, 0.0, 0.0, -0.45, 0.0, 0.0, 0.0, 1.6, 2.23, 1.9, 2.53, 3.79, 4.43, 4.29, 2.6, 2.24, 2.24, 1.2, 0.65, 0.59, 0.73, 1.36, 0.0, -1.86, -2.4, -1.24, 0.0, 0.66, 2.11, 3.64, 4.74, 4.74, 4.74, 3.43, 3.07, 3.79, 3.72, 4.01, 3.9, 3.69, 3.09, 3.27, 3.88, 3.02, 2.9, 3.22, 5.43, 6.64, 7.67, 7.68, 7.35, 6.64, 7.18, 7.01, 6.28, 6.17, 6.17, 4.76, 2.28, 0.0, -1.41, -1.33, -0.54, -2.07, -3.72, -4.0, -4.0, -3.79, -4.81, -6.26, -8.55, -9.23, -9.7, -9.48, -8.53, -7.9, -1.49, 2.17, 1.79, 0.0, -2.23, -4.07, 0.54, 0.71, 1.24, 1.24, 1.26, 1.26, 1.26, 1.6, 1.34, 0.89, 0.45, 0.0, 0.0, 0.0, 0.0, 0.0, -0.89, -1.34, -1.2, -0.89, -0.89, -1.34, -1.34, -0.63, 0.0, 0.0, 0.65, 0.76, 1.4, 2.53, 4.29, 3.32, 2.8, 1.58, 0.65, 0.0, 0.0, 1.1, 0.87, 0.0, -0.63, -0.45, 0.0, 0.65, 1.6, 4.81, 6.44, 6.06, 5.43, 4.47, 4.43, 2.79, 3.72, 3.11, 3.11, 2.2, 1.6, 1.41, 1.49, 2.35, 2.29, 3.22, 4.8, 6.94, 7.07, 7.33, 6.64, 4.83, 4.71, 4.68, 4.55, 4.61, 4.31, 3.98, 3.04, 1.55, 0.0, 0.0, 0.0, -2.07, -5.86, -7.89, -7.45, -6.79, -7.56, -9.62, -10.9, -10.86, -10.12, -8.46, -7.94, -2.84, 1.7, 3.32, 1.2, -1.41, -3.78, -4.6, 0.71, 0.71, 1.24, 1.24, 1.26, 1.26, 1.26, 1.26, 0.95, 0.89, 0.0, 0.0, 0.0, 0.0, 0.0, 0.0, -0.89, -1.26, -1.0, 0.0, 0.0, 0.0, -1.2, -2.12, -1.86, -1.24, -1.49, -0.57, 0.0, 1.86, 2.21, 2.53, 1.88, 1.4, 0.59, 0.0, 0.0, 0.0, 0.0, 0.95, -0.0, -0.0, -0.0, 0.0, 1.79, 3.9, 6.54, 7.06, 6.68, 6.52, 2.15, 2.41, 2.98, 2.88, 2.29, 1.47, 0.73, 0.0, 0.0, 0.72, 2.07, 2.8, 3.32, 6.0, 6.08, 6.32, 6.24, 3.09, 1.63, 1.6, 2.34, 2.31, 1.57, 0.79, 0.77, 1.38, 2.34, 1.44, 0.0, -1.56, -4.87, -9.39, -9.39, -9.39, -9.74, -10.38, -10.79, -9.85, -9.17, -7.18, -3.49, 0.63, 2.8, 1.79, 0.0, -2.9, -5.18, -5.18, 0.71, 1.24, 1.24, 0.99, 1.26, 1.26, 1.26, 0.8, 0.95, 0.63, 0.0, 0.0, 0.0, 0.0, 0.0, -0.95, -1.34, -1.26, -1.26, 0.0, 0.0, 0.0, 0.0, -1.58, -2.4, -2.21, -2.23, -1.34, 0.0, 0.0, 0.0, 0.0, 0.0, 0.65, 0.61, 0.0, -0.87, -0.98, 0.0, 0.0, -0.0, -0.0, -0.0, -0.0, 1.6, 2.68, 4.34, 5.95, 6.68, 6.32, 6.01, 4.11, 3.72, 2.88, 2.11, 1.35, 0.0, 0.0, 0.0, 1.33, 3.84, 5.16, 4.24, 5.75, 6.44, 7.02, 6.05, 3.8, 0.0, -0.79, 0.0, 0.0, 0.0, 0.0, 0.0, 0.0, 0.0, 0.73, 0.0, 0.0, -0.75, -7.76, -9.36, -9.74, -9.89, -9.6, -9.78, -8.53, -7.55, -5.0, -0.6, 1.79, 1.79, 0.0, -1.33, -4.0, -5.41, -5.52, 1.24, 1.24, 1.24, 0.99, 1.26, 1.26, 0.57, 0.8, 0.6, 0.0, 0.0, 0.0, 0.0, -0.8, -1.58, -2.0, -2.97, -3.13, -1.79, -1.79, -1.79, -1.6, -1.49, -2.23, -2.8, -2.8, -2.23, -1.79, -1.34, -1.49, -1.6, -1.24, 0.0, 0.0, 0.0, 0.0, 0.0, 0.0, 0.0, 0.0, -0.63, -0.0, -0.0, -0.0, 1.34, 2.24, 2.4, 2.86, 4.46, 6.06, 7.06, 6.68, 6.01, 4.65, 3.64, 2.88, 1.55, 0.0, 0.0, 2.4, 7.42, 8.63, 8.79, 6.94, 8.0, 7.68, 7.08, 5.7, 0.64, -1.6, -2.31, -2.02, -1.41, -1.36, -1.36, -2.01, -3.15, -3.21, -2.1, -0.69, 0.0, -1.39, -6.67, -7.48, -7.76, -7.73, -7.59, -7.31, -5.64, -2.51, -0.57, 0.0, -1.2, -2.4, -3.72, -5.52, -6.2, -6.42, 1.24, 1.24, 1.24, 1.24, 0.99, 0.57, 0.57, 0.57, 0.8, 0.0, 0.0, 0.0, 0.0, 0.0, -1.2, -1.74, -2.98, -3.82, -3.87, -3.87, -2.6, -2.4, -2.5, -2.8, -3.72, -2.23, -2.23, -2.54, -2.23, -2.21, -1.4, -0.63, -0.0, -0.0, 0.0, 0.0, 0.0, 0.71, 0.0, 0.0, 0.0, 0.0, 0.63, 1.58, 2.8, 2.6, 3.07, 3.32, 3.74, 5.86, 8.14, 8.67, 8.68, 8.32, 7.68, 7.33, 7.68, 2.79, 0.63, 4.41, 9.39, 10.45, 8.91, 8.63, 9.83, 10.23, 9.9, 8.46, 4.6, 0.0, -2.29, -2.75, -2.11, -2.11, -2.83, -3.27, -4.14, -4.83, -4.83, -4.01, -2.13, 0.0, -0.7, -3.51, -3.82, -4.52, -5.69, -5.36, -4.12, -2.5, -2.15, -2.8, -3.07, -4.24, -6.06, -7.08, -7.24, -6.14, 1.24, 1.24, 1.24, 1.24, 1.24, 0.71, 0.71, 0.57, 0.57, 0.0, 0.0, 0.0, 0.0, 0.0, -0.61, -1.16, -1.13, -1.8, -2.22, -1.58, -1.11, -0.98, -0.51, -1.27, 0.0, 0.0, -1.27, -0.61, -0.65, 0.0, 0.0, 0.57, 0.89, -0.0, -0.45, 0.0, 0.0, 0.45, -0.0, 0.0, 0.89, 1.7, 1.86, 2.8, 3.82, 3.58, 5.36, 6.26, 6.61, 7.08, 7.01, 8.4, 9.2, 9.84, 10.68, 10.4, 10.9, 8.6, 2.5, 4.66, 9.36, 10.16, 9.11, 8.91, 10.7, 11.66, 12.47, 11.9, 9.85, 6.05, 2.82, 0.67, 0.0, 0.0, -1.45, -3.55, -3.72, -4.12, -5.0, -4.14, -2.4, 0.0, 0.0, -1.7, -1.86, -2.21, -3.49, -2.86, -1.9, -1.58, -2.8, -4.24, -4.87, -5.86, -7.69, -7.73, -6.97, -4.65, 1.9, 1.49, 1.49, 1.24, 1.24, 0.71, 0.71, 0.71, 0.71, 0.0, 0.0, 0.0, 0.0, 0.0, 0.0, -0.59, -0.63, -1.19, -0.53, -0.53, 0.0, 0.0, 0.59, 1.1, 1.63, 1.63, 1.73, 1.71, 1.73, 1.14, 0.0, 0.65, 0.8, 0.0, 0.0, 0.45, 0.63, 0.63, 0.6, 0.63, 1.34, 1.79, 2.17, 1.79, 2.24, 3.13, 3.04, 3.58, 3.58, 3.58, 3.58, 3.53, 3.82, 4.24, 5.26, 5.4, 8.4, 10.43, 4.71, 3.58, 8.19, 8.91, 8.91, 9.39, 10.26, 10.28, 11.71, 12.94, 11.9, 11.14, 9.7, 7.63, 4.8, 2.97, 0.0, -1.13, -1.86, -1.86, -2.15, -1.84, -1.2, -0.7, -0.74, -0.79, -1.26, -1.2, -2.15, -1.2, -0.54, -0.54, -1.24, -2.8, -4.87, -7.21, -8.68, -8.46, -6.79, -2.53, 1.61, 1.61, 1.2, 1.2, 1.2, 0.65, 0.54, 0.54, 0.54, 0.0, 0.0, 0.0, 0.0, 0.0, -0.53, -0.59, -0.55, -0.54, -0.58, -0.57, 0.0, 0.0, 0.54, 0.57, 0.57, 1.12, 1.12, 1.67, 2.19, 1.69, 0.56, 0.0, 0.0, 0.0, 0.0, 0.89, 0.89, 0.89, 0.89, 0.89, 0.89, 0.89, 0.89, 3.13, 4.02, 4.47, 2.17, 2.12, 1.7, 2.12, 1.79, 0.89, 0.0, 0.0, 0.0, -0.0, 1.34, 4.2, 5.16, 3.82, 6.54, 7.97, 8.94, 9.33, 8.36, 7.89, 8.05, 8.38, 9.67, 9.56, 11.06, 9.49, 7.01, 3.85, 1.58, 1.16, 1.7, 0.8, 0.0, 0.0, -1.49, -2.3, -2.9, -2.72, -1.49, -1.4, -1.4, -0.54, 0.0, 0.0, 0.0, -1.2, -3.45, -6.0, -7.95, -7.9, -5.3, -1.61, 1.88, 1.88, 1.2, 1.2, 1.2, 0.65, 0.65, 0.65, 0.54, 0.54, 0.0, 0.0, 0.0, 0.0, -0.61, -0.59, -0.57, -0.54, -0.53, -0.53, 0.0, 0.0, 0.0, 0.0, 0.0, 0.56, 1.12, 1.18, 1.16, 1.73, 1.12, 0.0, 0.0, 0.0, 0.0, 2.24, 2.8, 1.7, 2.4, 0.63, 0.63, 0.0, 0.0, 1.58, 3.13, 3.58, 3.58, 2.8, 2.4, 0.95, 0.45, 0.0, -0.89, -0.89, -0.45, -0.6, -1.6, -1.23, 1.44, 5.37, 3.51, 2.8, 2.8, 2.8, 3.2, 3.6, 2.8, 3.13, 5.4, 6.95, 8.01, 7.58, 4.55, 1.45, 0.67, 4.46, 6.07, 5.37, 3.79, 1.6, 0.0, -1.41, -2.6, -3.64, -4.75, -3.07, -2.15, -1.2, -0.71, -0.76, -0.79, -1.27, -2.84, -3.48, -5.43, -2.98, -1.2, -1.2, 1.61, 1.61, 1.16, 1.16, 1.16, 1.16, 0.53, 0.53, 0.65, 0.65, 0.0, 0.0, 0.0, 0.0, 0.0, -0.59, -0.57, -0.61, -0.59, -0.58, 0.0, 0.0, 0.0, 0.0, 0.57, 0.57, 0.56, 1.18, 1.11, 1.11, 1.11, 0.57, 0.0, 0.0, 0.0, 1.2, 2.12, 2.4, 2.53, 0.0, 0.0, 0.0, 1.58, 2.4, 2.68, 3.13, 3.58, 2.8, 2.68, 2.24, 0.0, 0.0, 0.0, 0.0, 0.0, 0.0, -2.12, -2.53, 0.0, 2.53, 2.17, 2.68, 3.13, 3.2, 0.8, 0.57, 1.24, 2.6, 5.26, 6.32, 4.8, 2.13, 0.0, -0.73, 1.61, 6.28, 8.3, 8.27, 7.08, 6.05, 4.83, 2.4, 0.0, -0.73, -3.83, -5.64, -4.46, -2.86, -2.5, -2.84, -2.98, -2.07, -2.15, -2.73, -3.55, -2.79, -1.88, -1.88, 1.84, 1.84, 1.84, 1.16, 1.16, 1.16, 1.16, 0.61, 0.61, 0.53, 0.53, 0.0, 0.0, 0.0, 0.0, 0.0, -0.57, -0.55, -0.54, 0.0, 0.0, 0.0, 0.0, 0.0, 0.54, 0.57, 0.56, 0.56, 0.56, 0.0, 0.0, 0.0, 0.0, 0.0, 0.0, 1.2, 1.7, 1.24, 0.0, 0.0, 0.0, 0.0, 1.58, 1.2, 2.68, 3.13, 3.13, 2.68, 2.24, 2.24, 1.79, 1.34, 0.0, 1.58, 1.58, 0.0, 0.0, 0.0, 2.8, 3.2, 1.4, 1.2, 2.68, 2.68, 1.58, -0.0, -0.0, 1.26, 2.12, 3.35, 1.11, -1.45, -3.23, 0.0, 3.51, 7.71, 9.9, 9.85, 8.56, 7.9, 7.63, 6.21, 3.76, 2.06, -0.61, -2.68, -5.16, -4.24, -4.84, -4.74, -4.07, -2.15, -2.21, -3.15, -3.9, -2.73, -2.53, -2.53, 1.6, 1.6, 1.6, 1.13, 1.13, 1.13, 1.13, 0.61, 0.61, 0.61, 0.61, 0.0, 0.0, 0.0, 0.0, 0.0, 0.0, 0.0, 0.0, 0.0, 0.0, -0.57, 0.0, 0.0, 1.18, 0.54, 0.0, 0.0, 0.0, 0.0, 0.0, 0.0, 0.0, 0.0, 0.0, 0.0, 0.0, -0.71, -0.76, -0.76, -0.57, 0.0, 0.0, 0.63, 1.9, 2.4, 2.4, 2.68, 2.24, 2.4, 2.4, 2.4, 2.4, 2.4, 1.9, 1.4, 1.4, 2.53, 3.2, 1.4, 1.4, 1.13, 1.9, 3.13, 3.82, 1.7, 0.89, -1.34, -2.6, -3.52, -2.15, -1.59, 0.0, 2.07, 4.24, 5.6, 7.35, 7.54, 7.01, 6.31, 5.29, 3.96, 3.04, 0.0, -1.86, -3.04, -3.58, -5.31, -5.86, -5.46, -3.79, -2.86, -3.14, -4.75, -4.74, -2.79, -3.16, -3.16, 1.8, 1.8, 1.8, 1.8, 1.13, 1.13, 1.13, 1.13, 0.59, 0.51, 0.61, 0.61, 0.0, 0.0, 0.0, 0.0, 0.0, 0.0, 0.0, 0.0, 0.0, -1.14, -1.16, 0.0, 0.0, 0.0, 0.0, 0.0, -0.76, -0.57, 0.0, 0.0, 0.56, 0.57, 0.0, -0.57, -1.13, -2.22, -1.6, -0.99, -0.65, 0.0, 0.0, 0.0, 1.4, 2.53, 2.53, 1.4, 1.9, 1.9, 1.9, 2.8, 2.8, 3.2, 3.39, 2.84, 2.53, 1.6, 1.13, 0.0, 0.0, 0.0, 0.0, 1.6, 2.23, 2.23, 1.2, -1.2, -4.46, -5.46, -2.13, 2.25, 4.75, 5.45, 3.11, 1.35, 0.0, 0.0, 0.78, 1.51, 0.0, 0.0, -0.78, -0.68, -1.33, -2.68, -3.07, -2.68, -5.16, -4.3, -4.24, -4.46, -5.46, -5.69, -5.09, -3.48, -2.84, -2.84, 1.58, 1.58, 1.8, 1.8, 1.8, 1.27, 1.27, 1.13, 1.13, 0.59, 0.59, 0.51, 0.0, 0.0, 0.0, 0.0, 0.0, 0.0, 0.0, 0.0, -0.82, -1.07, -1.76, -2.53, -2.6, -1.55, -0.73, -0.59, 0.0, 0.0, 0.58, 0.58, 1.12, 1.2, 0.53, 0.0, -0.55, -1.19, -1.07, -0.54, -0.61, 0.0, 0.55, 1.19, 1.57, 1.08, 1.27, 1.13, 1.4, 1.2, 1.9, 2.4, 2.8, 3.39, 2.12, 2.4, 3.79, 1.24, 0.0, 0.0, 0.0, 0.0, 0.0, 1.9, 1.58, 1.58, 1.26, 0.0, 0.0, 0.0, 3.16, 5.67, 6.31, 4.77, 0.0, -2.99, -6.31, -6.97, -3.87, -2.33, -1.57, -1.53, -1.57, -1.52, -1.33, -1.79, -1.26, 0.0, -2.17, -2.63, -4.41, -6.4, -6.44, -6.0, -5.6, -5.43, -4.46, -4.46, 1.76, 1.76, 1.76, 1.76, 1.58, 1.58, 1.11, 1.11, 1.27, 0.59, 0.59, 0.59, 0.0, 0.0, 0.0, 0.0, 0.0, -0.59, -1.27, -1.55, -0.82, -0.55, -1.11, -1.57, -2.18, -1.67, -0.58, 0.0, 0.0, 0.58, 1.14, 1.12, 1.76, 1.63, 1.63, 1.12, 0.58, 0.0, 0.0, 0.0, 0.0, 0.0, 0.58, 1.12, 1.14, 1.05, 1.19, 1.08, 0.0, 0.0, 1.2, 1.9, 3.13, 3.58, 4.24, 2.4, 3.22, 2.53, 1.13, -1.2, -1.2, -1.58, 0.0, 1.58, 0.6, 0.8, 0.95, 1.34, 2.86, 5.37, 7.18, 7.93, 7.88, 3.92, -1.57, -7.71, -13.05, -12.49, -10.04, -7.13, -3.91, -2.28, -1.53, 0.0, 0.0, -0.71, 0.0, 0.6, 0.0, -1.0, -3.45, -6.0, -5.05, -4.24, -4.73, -5.02, -4.4, -4.4, 1.76, 1.76, 1.76, 1.76, 1.76, 1.76, 1.23, 1.11, 1.11, 1.11, 0.57, 0.57, 0.0, 0.0, 0.0, 0.0, -0.57, -0.57, -1.19, -1.7, -1.16, -0.61, -0.55, -0.61, -1.16, -0.58, 0.0, 0.0, 0.53, 0.57, 1.12, 1.2, 1.63, 1.73, 1.61, 1.61, 1.1, 0.57, 0.0, 0.0, 0.0, 0.0, 0.0, 0.53, 0.58, 1.16, 1.05, 0.0, 0.0, 0.0, 0.0, 1.58, 2.68, 3.58, 3.82, 4.77, 4.24, 4.93, 3.48, 0.0, -0.89, -0.45, 0.0, 0.63, 1.2, 1.6, 1.6, 1.79, 2.24, 4.82, 8.24, 10.82, 10.35, 6.42, -6.7, -12.13, -14.65, -15.14, -14.18, -11.45, -8.56, -5.11, -2.25, 0.0, 0.0, 0.0, 0.0, 0.0, -1.41, -1.41, -3.55, -4.75, -3.14, -2.4, -2.6, -3.07, -2.91, -2.91, 1.73, 1.73, 1.57, 1.76, 1.76, 1.76, 1.76, 1.23, 1.11, 1.11, 0.57, 0.57, 0.0, 0.0, 0.0, 0.0, -0.57, -0.55, -1.19, -1.16, -0.59, -0.59, -0.59, -0.59, -0.53, -0.58, 0.0, 0.0, 0.0, 0.57, 0.57, 1.2, 1.1, 1.18, 1.09, 1.16, 1.16, 1.18, 0.56, 0.57, 0.57, 0.57, 0.57, 0.58, 0.58, 1.16, 1.14, 0.0, 0.0, 0.0, 0.0, 1.58, 2.68, 3.13, 4.02, 4.47, 3.13, 3.97, 2.86, 1.2, 0.0, -0.89, 0.0, 0.89, 2.12, 2.68, 2.24, 1.79, 1.79, 2.6, 2.23, 4.0, 3.96, 3.18, -1.34, -8.02, -12.18, -14.11, -14.93, -14.93, -12.05, -8.66, -5.4, -3.07, -2.25, -0.78, -1.45, -2.29, -3.8, -3.88, -4.14, -3.16, -2.0, -1.34, -1.34, -2.0, -2.5, -2.5, 1.73, 1.73, 1.73, 1.73, 1.73, 1.73, 1.57, 1.57, 1.23, 1.23, 0.63, 0.63, 0.57, 0.0, 0.0, 0.0, 0.0, -0.55, -0.61, -1.07, -1.16, -0.53, -0.58, -0.58, -0.58, -0.58, 0.0, 0.0, 0.0, 0.0, 0.57, 0.57, 0.56, 0.56, 1.18, 1.09, 1.16, 1.16, 0.59, 0.56, 0.56, 0.57, 0.57, 0.57, 0.58, 0.0, 0.0, 0.0, 0.0, 0.0, 0.0, 1.2, 2.4, 3.13, 3.58, 4.02, 2.24, 2.24, 2.23, 1.6, 0.0, -1.26, -0.89, 1.34, 2.68, 3.58, 3.13, 5.2, 2.68, 1.79, -0.0, -3.34, 0.0, 2.36, 3.11, -1.34, -7.6, -10.7, -12.93, -13.7, -13.74, -11.42, -8.49, -7.02, -6.2, -4.71, -3.8, -3.69, -3.9, 0.0, -0.73, 0.0, 0.0, -0.45, -1.79, -2.4, -2.5, -2.5, 1.73, 1.73, 1.73, 1.73, 1.73, 1.73, 1.73, 1.73, 1.08, 1.08, 1.08, 0.55, 0.55, 0.0, 0.0, 0.0, 0.0, -0.61, -0.61, -0.54, -1.16, -1.16, -0.53, -0.58, -0.58, -0.58, 0.0, 0.0, 0.0, 0.0, 0.0, 0.57, 0.57, 0.56, 0.56, 0.59, 0.55, 0.55, 0.55, 0.59, 0.56, 0.56, 0.61, 0.57, 0.53, 0.0, 0.0, 0.0, 0.0, 0.58, 0.54, 1.08, 1.4, 2.4, 3.13, 3.58, 3.58, 1.34, 0.45, 0.65, 0.0, -0.61, -0.95, 0.89, 2.68, 3.13, 3.58, 4.47, 3.58, -0.89, -4.66, -4.83, -1.08, 3.12, 4.66, 3.83, 0.0, -3.32, -8.79, -10.95, -13.0, -12.5, -10.82, -9.48, -7.08, -5.21, -3.69, -2.98, -0.54, 2.6, 3.45, 2.84, 1.0, 0.0, -1.86, -2.91, -2.68, -2.68, 1.73, 1.73, 1.73, 1.73, 1.73, 1.73, 1.73, 1.73, 1.19, 1.19, 1.19, 0.55, 0.55, 0.0, 0.0, 0.0, 0.0, -0.61, -0.54, -0.54, -0.54, -0.59, -0.59, -0.59, -0.58, -0.58, -0.58, 0.0, 0.0, 0.0, 0.0, 0.0, 0.0, 0.0, 0.0, 0.0, 0.59, 0.55, 0.55, 0.55, 0.59, 0.0, 0.0, 0.0, 0.0, 0.0, 0.0, 0.0, 0.0, 0.57, 0.57, 0.54, 0.0, 1.2, 2.4, 3.13, 3.13, 2.68, 0.0, 0.0, 0.0, 0.0, 0.0, 0.63, 2.24, 2.68, 3.58, 3.58, 1.79, -0.63, -3.2, -4.47, -1.52, 1.6, 3.89, 7.17, 6.44, -1.39, -6.64, -9.33, -12.37, -13.18, -12.01, -9.84, -6.28, -4.56, -3.2, -1.41, 0.54, 2.0, 1.2, 2.73, 0.67, 0.0, -1.61, -2.4, -2.91, -2.91, 1.73, 1.73, 1.73, 1.88, 1.88, 1.7, 1.88, 1.73, 1.73, 1.19, 1.19, 0.61, 0.54, 0.0, 0.0, 0.0, 0.0, 0.0, -0.54, -0.54, -0.54, -0.59, -0.59, -0.59, -0.59, -0.53, -0.58, 0.0, 0.0, 0.0, 0.0, 0.0, 0.0, 0.0, 0.0, 0.0, 0.0, 0.0, 0.0, 0.0, 0.0, 0.0, 0.0, 0.0, 0.0, 0.0, 0.0, 0.0, 0.0, 0.0, 0.0, 0.53, 0.55, 0.61, 0.6, 1.2, 2.68, 2.68, 0.89, 0.0, 0.0, 0.0, 0.0, 0.65, 4.02, 2.68, 2.68, 2.24, 0.89, 0.0, -2.23, -3.07, -2.99, 0.0, 3.17, 6.14, 6.27, 2.79, -5.21, -9.72, -11.66, -12.81, -12.25, -9.78, -7.95, -6.32, -5.21, -2.2, 0.0, 0.54, 0.0, -0.7, 0.0, -0.67, -1.33, -1.9, -2.4, -2.4, 1.88, 1.88, 1.88, 1.88, 1.7, 1.7, 1.7, 1.7, 1.55, 1.07, 1.07, 0.54, 0.54, 0.54, 0.0, 0.0, 0.0, 0.0, -0.54, -0.54, -0.54, -0.54, -0.54, -0.54, -0.59, -0.59, -0.59, -0.59, 0.0, 0.0, 0.0, 0.0, 0.0, 0.0, 0.0, 0.0, 0.0, 0.0, 0.0, 0.0, 0.0, 0.0, 0.0, 0.0, 0.56, 0.61, 0.0, 0.0, 0.0, 0.0, 0.0, 0.0, 0.55, 0.59, 0.65, 0.6, 1.26, 1.79, 0.89, 0.0, 0.0, -0.53, 0.0, 1.2, 2.6, 4.92, 2.8, 1.86, 0.0, 0.0, -0.71, -2.3, -3.79, -3.09, -1.47, -0.79, 0.0, 1.55, 0.0, -6.71, -10.16, -9.7, -9.71, -10.0, -9.05, -8.18, -5.69, -2.3, -0.7, -0.7, -1.33, -2.29, -1.58, -2.06, -1.27, -1.61, -1.86, -1.86, 1.7, 1.7, 1.7, 1.7, 1.7, 1.7, 1.7, 1.7, 1.7, 1.7, 1.16, 1.16, 0.59, 0.59, 0.0, 0.0, 0.0, 0.0, 0.0, -0.54, -0.54, -0.54, -0.54, -0.54, -0.54, -0.54, -0.54, -0.59, 0.0, 0.0, 0.0, 0.0, 0.0, 0.0, 0.0, 0.0, 0.0, 0.0, 0.0, 0.0, 0.0, 0.0, 0.0, 0.0, 0.0, 1.23, 0.0, -0.57, -1.05, -0.58, 0.0, 0.0, 0.0, 0.0, 0.53, 0.0, 0.0, 0.0, 0.45, -0.0, 0.0, -0.65, 0.0, 1.26, 2.68, 3.13, 3.32, 2.5, 0.57, -0.42, -0.71, -1.6, -3.09, -5.76, -8.46, -9.28, -7.91, -3.16, 0.0, -2.8, -6.26, -7.58, -7.6, -6.4, -6.25, -4.12, -2.86, -2.53, -2.79, -2.3, -1.33, -1.33, -0.69, -2.12, -2.0, -1.9, -0.8, -0.8, 1.7, 1.7, 1.7, 1.7, 1.7, 1.7, 1.7, 1.7, 1.7, 1.7, 1.16, 1.16, 0.59, 0.59, 0.59, 0.0, 0.0, 0.0, 0.0, 0.0, -0.54, -0.54, -0.54, 0.0, -0.54, -0.54, -0.54, 0.0, 0.0, 0.0, -0.53, -0.53, -0.53, -0.53, -0.53, 0.0, 0.0, 0.0, 0.0, 0.0, 0.0, 0.0, -0.57, -0.58, 0.0, 0.0, 0.0, -0.58, -1.08, -0.57, 0.0, 0.0, 0.0, 0.0, 0.0, 0.0, 0.0, 0.0, 0.0, 0.0, -0.63, -0.71, 0.0, 0.89, 2.24, 2.68, 2.68, 2.21, 0.61, -0.65, -2.41, -2.47, -1.47, -3.91, -8.72, -11.08, -10.98, -8.74, -3.78, -1.41, -3.32, -5.09, -4.0, -2.23, -1.61, -0.54, 0.0, -0.54, -1.2, -0.54, 0.0, 0.0, 0.0, -0.74, -0.69, -1.16, -0.57, -0.57, 1.7, 1.7, 1.7, 1.7, 1.7, 1.7, 1.7, 1.7, 1.7, 1.7, 1.16, 1.16, 0.59, 0.59, 0.53, 0.0, 0.0, 0.0, 0.0, 0.0, 0.0, 0.0, 0.0, 0.0, 0.0, 0.0, 0.0, 0.0, 0.0, -0.59, -0.59, -0.59, -0.59, -0.59, -0.54, 0.0, 0.0, 0.0, 0.0, 0.0, -0.57, -0.61, -0.57, -0.58, -1.07, -1.6, -0.76, -0.59, 0.0, 0.0, 0.0, 0.0, 0.0, 0.0, 0.0, 0.0, 0.0, 0.0, 0.0, 0.0, -0.6, -0.8, 0.0, 0.45, 1.34, 1.7, 1.2, 0.0, 0.0, -1.98, -3.16, -2.21, -1.63, 0.0, -3.09, -8.5, -11.14, -9.66, -7.13, -3.91, -3.12, -2.8, -0.43, 0.53, 0.51, 0.51, 1.11, 1.13, 0.76, 1.24, 1.26, 0.8, 0.61, 0.69, 0.0, 0.0, 0.0, 0.0, 1.7, 1.7, 1.7, 1.7, 1.7, 1.7, 1.7, 1.7, 1.7, 1.7, 1.16, 1.16, 1.16, 0.53, 0.53, 0.0, 0.0, 0.0, 0.0, 0.0, 0.0, 0.0, 0.0, 0.0, 0.0, 0.0, 0.0, 0.0, 0.0, -0.54, -0.54, -0.61, -0.61, -0.61, -0.61, -0.61, 0.0, 0.0, -0.53, -0.58, -0.57, -0.57, -0.57, -0.57, -1.12, -1.65, -1.12, 0.0, 0.0, 0.0, 0.0, 0.0, 0.0, 0.0, 0.0, 0.0, 0.0, 0.0, -0.54, -0.54, -0.6, -0.6, 0.0, 0.0, 0.89, 1.34, 0.45, -0.95, -1.6, -2.12, -0.54, 0.0, -0.8, -1.14, 0.0, -4.75, -8.51, -7.52, -6.05, -4.94, -3.53, -1.13, 0.54, 1.13, 1.08, 1.07, 1.67, 2.14, 2.47, 2.0, 0.65, 0.71, 0.65, 1.3, 1.32, 1.36, 0.67, 0.67, 1.7, 1.7, 1.7, 1.7, 1.7, 1.7, 1.7, 1.7, 1.7, 1.7, 1.16, 1.16, 1.16, 1.05, 0.53, 0.53, 0.0, 0.0, 0.0, 0.0, 0.0, 0.0, 0.0, 0.0, 0.0, 0.0, -0.61, -0.61, -0.61, -0.76, -0.55, -0.63, -0.63, -0.63, -0.63, -0.55, -0.55, -0.54, -0.59, -0.53, -0.58, -0.53, -0.57, -0.57, -0.57, -0.57, 0.0, 0.0, 0.0, 0.0, 0.0, 0.0, 0.0, 0.0, 0.0, 0.0, 0.0, 0.0, 0.0, -0.65, -0.54, 0.0, 0.0, 0.63, 1.2, 1.34, 1.34, 0.0, -1.49, -0.76, 1.2, 2.12, -0.6, -4.46, -3.99, -3.37, -3.87, -2.68, -2.0, -2.75, -2.06, -0.65, 0.0, 0.0, 0.53, 1.12, 1.73, 2.73, 2.99, 1.47, 1.41, 0.7, 0.7, 0.63, 0.67, 2.23, 1.4, 1.4, 1.7, 1.7, 1.7, 1.7, 1.7, 1.7, 1.7, 1.7, 1.7, 1.16, 1.16, 1.16, 1.16, 1.05, 0.58, 0.53, 0.53, 0.0, 0.0, 0.0, 0.0, 0.0, 0.0, 0.0, 0.0, 0.0, -0.61, -0.54, -1.16, -1.07, -0.55, -0.63, -0.57, -0.57, -0.57, -0.57, -0.55, -0.55, -0.54, -0.59, -0.53, -0.58, -0.58, 0.0, 0.0, 0.0, 0.0, 0.0, 0.0, 0.0, 0.0, 0.0, 0.0, 0.0, 0.0, 0.0, 0.0, 0.0, 0.0, 0.0, 0.0, 0.0, 1.26, 1.58, 1.2, 0.8, 0.89, 0.45, 0.0, 0.0, 2.23, 2.21, 0.0, -6.31, -7.15, -3.29, 0.79, 0.61, 0.0, -0.7, -1.43, -1.39, -1.4, -0.69, 0.0, 1.12, 2.1, 2.71, 2.06, 2.26, 1.47, 1.47, 0.7, 0.0, 0.0, 1.44, 1.44, 1.44, 1.7, 1.7, 1.7, 1.7, 1.7, 1.7, 1.7, 1.7, 1.7, 1.16, 1.16, 1.16, 1.05, 1.05, 0.53, 0.53, 0.59, 0.0, 0.0, 0.0, 0.0, 0.0, 0.0, 0.0, 0.0, 0.0, -0.54, -0.54, -1.07, -1.07, -0.61, -0.55, -0.57, -0.57, -0.57, -0.57, -0.63, -0.55, -0.61, -0.54, -0.59, -0.59, 0.0, 0.0, 0.0, 0.0, 0.0, 0.0, 0.0, 0.0, 0.0, 0.0, 0.0, 0.0, 0.0, 0.0, 0.0, 0.0, 0.0, 0.0, 0.0, 0.0, 1.26, 1.58, 1.9, 1.58, 0.0, 0.0, 0.0, 0.45, 1.7, 1.49, 0.0, -2.99, -5.51, -1.58, 3.09, 5.51, 2.33, -0.77, -3.53, -3.46, -2.69, -0.69, 0.69, 1.65, 2.26, 2.23, 2.12, 1.44, 1.4, 1.52, 0.74, 0.0, 0.0, 0.0, 1.32, 1.32, 1.7, 1.7, 1.7, 1.7, 1.7, 1.7, 1.7, 1.7, 1.7, 1.16, 1.16, 1.16, 1.16, 1.05, 0.53, 0.53, 0.59, 0.59, 0.59, 0.0, 0.0, 0.0, 0.0, 0.0, 0.0, 0.0, -0.54, -0.54, -0.54, -0.61, -0.55, -0.55, -0.57, -0.57, -0.57, -0.57, -0.63, -0.55, -0.55, -0.61, -0.61, -0.54, 0.0, 0.0, 0.0, 0.0, 0.0, 0.0, 0.0, 0.0, 0.0, 0.0, 0.0, 0.0, 0.0, 0.0, 0.0, 0.0, 0.0, 0.0, 0.0, 0.0, 0.0, 0.63, 0.6, 1.2, 0.0, 0.0, 0.0, 0.45, 1.34, 1.86, 1.98, 0.0, -1.57, -0.79, 1.54, 3.89, 2.36, -0.71, -4.29, -4.05, -1.33, 0.0, 1.33, 2.12, 1.44, 1.44, 1.44, 1.44, 0.73, 0.76, 0.8, 0.0, 0.0, 0.0, 0.0, 0.0, 1.7, 1.7, 1.7, 1.7, 1.7, 1.7, 1.7, 1.7, 1.7, 1.16, 1.16, 1.16, 1.16, 1.16, 0.59, 0.59, 0.59, 0.59, 0.59, 0.54, 0.54, 0.0, 0.0, 0.0, 0.0, 0.0, 0.0, -0.54, -0.54, -0.61, -0.55, -0.63, -0.57, -0.57, -0.57, -0.57, -0.57, -0.63, -0.55, -0.55, -0.55, 0.0, 0.0, 0.0, 0.54, 0.0, 0.0, 0.0, 0.0, 0.0, 0.0, 0.0, 0.0, 0.0, 0.0, -0.61, -0.61, -0.55, -0.57, 0.0, 0.0, 0.0, 0.0, 0.63, 0.6, 0.0, 0.63, 0.63, 0.45, 0.45, 1.34, 2.24, 3.16, 2.16, 0.0, -2.25, -2.31, -2.28, -3.14, -3.7, -2.9, -1.4, 0.0, 0.0, 0.61, 0.67, 0.65, 0.76, 0.69, 0.73, 0.73, 0.73, 0.0, 0.0, 0.0, 0.0, 0.0, 0.0, 1.7, 1.7, 1.7, 1.7, 1.7, 1.7, 1.7, 1.7, 1.16, 1.16, 1.16, 1.16, 1.16, 1.16, 0.59, 0.59, 0.59, 0.59, 0.59, 0.54, 0.54, 0.0, 0.0, 0.0, 0.0, 0.0, 0.0, -0.54, -0.54, -0.61, -0.55, -0.63, -0.57, -0.57, -0.57, -0.57, -0.57, -0.57, -0.57, -0.63, -0.63, -0.57, 0.0, 0.0, 0.61, 0.0, -0.59, -0.54, -0.61, 0.0, 0.0, -0.61, -0.55, -0.55, -0.55, -0.61, -0.61, -0.55, -0.57, -0.57, -0.59, -0.61, 0.0, 0.0, 0.0, 0.0, 0.0, 0.0, 0.32, 0.89, 1.34, 1.79, 1.49, 0.74, 0.0, -1.58, -3.96, -6.24, -6.58, -4.99, -0.69, 0.72, 0.0, 0.0, 0.0, 0.0, 0.0, 0.0, 0.0, 0.0, 0.0, 0.0, 0.0, 0.0, 0.0, -0.69, -0.69, 0.0, 1.7, 1.7, 1.7, 1.7, 1.7, 1.7, 1.7, 1.7, 1.16, 1.16, 1.16, 1.16, 1.16, 1.16, 1.16, 0.59, 0.59, 0.59, 0.59, 0.59, 0.59, 0.0, 0.0, 0.0, 0.0, 0.0, 0.0, 0.0, -0.54, -0.61, -0.55, -0.63, -0.57, -0.57, -0.57, -0.57, -0.57, -0.57, -0.57, -0.57, -0.57, -0.57, -0.57, 0.0, 0.0, 0.0, -0.53, -0.55, 0.0, 0.0, -0.55, -0.55, -0.55, -0.55, -0.55, -1.19, -1.19, -1.23, -0.57, -0.57, -0.59, -0.61, 0.0, 0.0, 0.0, 0.0, 0.0, 0.0, 0.0, 1.34, 1.34, 0.45, 0.0, 0.0, 2.24, 3.13, 0.0, -3.95, -5.46, -3.36, 0.0, 0.65, 0.69, 0.0, 0.0, 0.0, 0.0, 0.0, 0.0, 0.0, 0.0, 0.0, -0.73, -0.74, -0.74, -0.81, -0.71, -0.69, 1.7, 1.7, 1.7, 1.7, 1.7, 1.7, 1.7, 1.16, 1.16, 1.16, 1.16, 1.16, 1.16, 1.16, 1.16, 1.16, 1.16, 1.16, 0.59, 0.59, 0.59, 0.59, 0.0, 0.0, 0.0, 0.0, 0.0, 0.0, 0.0, -0.61, -0.55, -0.63, -0.57, -0.57, -0.59, -0.59, -0.59, -0.59, -0.59, -0.59, -0.57, -0.57, -0.57, -0.57, -1.23, -0.79, -0.59, 0.0, 0.0, 0.0, -0.55, -0.55, -0.55, -1.08, -1.08, -1.19, -1.08, -1.11, -1.11, -1.13, -1.13, -1.16, 0.0, 0.0, 0.0, 0.0, 0.0, 0.0, 0.45, 1.34, 1.34, 0.0, -1.26, -0.76, 0.0, 3.42, 3.09, 0.0, -3.07, -2.29, 0.0, 0.51, 0.7, 0.0, 0.0, 0.0, 0.0, 0.0, 0.0, -0.76, -0.73, -0.73, -1.44, -1.6, -1.6, -1.52, -1.52, -1.52, 1.7, 1.7, 1.7, 1.7, 1.7, 1.7, 1.16, 1.16, 1.16, 1.16, 1.16, 1.16, 1.16, 1.16, 1.16, 1.16, 1.16, 1.16, 1.16, 0.59, 0.59, 0.59, 0.0, 0.0, 0.0, 0.0, 0.0, 0.0, 0.0, -0.61, -0.55, -0.63, -0.57, -0.57, -0.59, -0.59, -0.59, -0.59, -0.59, -0.59, -0.59, -0.57, -0.57, -0.63, -1.08, -1.07, 0.0, 0.0, 0.0, 0.0, -0.55, -0.61, -1.19, -1.19, -1.08, -1.08, -1.23, -1.11, -1.27, -1.13, -1.13, -1.16, -1.2, -1.2, 0.0, 0.0, 0.0, 0.0, 1.34, 1.34, 0.89, -0.45, -1.6, -1.9, -1.74, -1.14, 0.78, 2.38, 1.53, 0.0, 0.0, 0.51, 0.64, 0.0, 0.0, 0.0, 0.0, -0.67, -0.74, -1.44, -1.47, -2.17, -2.06, -2.35, -2.23, -2.31, -2.31, -2.31, 1.7, 1.7, 1.7, 1.7, 1.7, 1.16, 1.16, 1.16, 1.16, 1.16, 1.16, 1.16, 1.16, 1.16, 1.16, 1.16, 1.16, 1.16, 1.16, 0.59, 0.59, 0.59, 0.0, 0.0, 0.0, 0.0, 0.0, 0.0, 0.0, -0.61, -0.55, -0.63, -0.57, -0.66, -0.59, -0.59, -0.59, -0.59, -0.59, -0.59, -0.59, -0.57, -0.57, -0.57, -0.55, -0.55, 0.0, 0.0, 0.0, 0.0, -0.61, -0.54, -1.19, -1.19, -1.73, -1.76, -1.11, -1.27, -1.13, -1.13, -1.13, -1.33, -1.16, -1.4, -1.2, 0.0, 0.0, 1.58, 1.79, 1.34, 0.0, -0.89, -2.12, -2.5, -3.79, -4.56, -1.55, 2.43, 6.4, 6.14, 4.58, 3.61, 1.39, 0.0, -0.7, -1.4, -1.4, -1.45, -2.18, -2.17, -2.28, -2.97, -2.97, -3.06, -2.9, -2.99, -2.99, -2.99, 1.7, 1.7, 1.7, 1.7, 1.16, 1.16, 1.16, 1.16, 1.16, 1.16, 1.07, 1.07, 1.07, 1.07, 1.16, 1.16, 1.16, 1.16, 1.16, 0.59, 0.59, 0.59, 0.0, 0.0, 0.0, 0.0, 0.0, 0.0, -0.54, -0.61, -0.55, -0.63, -0.57, -0.59, -0.59, -0.59, -0.51, -0.61, -1.13, -1.13, -1.13, -1.27, -1.11, -0.57, -0.57, -0.63, -0.55, -0.55, -0.61, -0.54, -0.54, -1.07, -1.16, -1.07, -1.73, -1.58, -1.27, -1.13, -1.13, -1.13, -1.13, -1.6, -1.84, -1.61, -1.4, 0.0, 0.0, 0.63, 1.34, 0.89, 0.0, -0.8, -1.86, -2.5, -2.51, -1.84, 0.0, 1.6, 5.51, 9.42, 11.69, 10.14, 5.8, 0.71, -1.45, -2.9, -3.51, -3.51, -4.5, -3.7, -4.18, -3.88, -3.78, -4.5, -4.0, -3.91, -3.91, -3.91, 1.7, 1.7, 1.7, 1.16, 1.16, 1.16, 1.16, 1.16, 1.16, 1.07, 1.07, 1.07, 1.07, 1.07, 1.16, 1.16, 1.16, 1.16, 1.16, 0.59, 0.59, 0.59, 0.0, 0.0, 0.0, 0.0, 0.0, 0.0, -0.54, -0.54, -0.55, -0.63, -0.57, -0.59, -0.59, -0.51, -0.61, -1.16, -1.33, -1.13, -1.13, -1.13, -1.11, -0.57, -0.57, -0.57, -0.55, -0.55, -0.61, -1.07, -1.16, -1.16, -1.16, -1.7, -1.73, -1.58, -1.13, -1.13, -1.13, -1.13, -1.13, -1.6, -1.6, -1.84, -1.16, 0.0, 0.0, 0.0, 0.0, 0.45, -0.45, -1.34, -1.49, -1.9, -1.2, 0.0, 1.4, 2.44, 4.58, 8.56, 11.83, 12.21, 9.23, 5.59, 1.39, -2.72, -5.31, -6.44, -6.31, -6.44, -5.45, -4.83, -4.71, -4.83, -4.6, -4.46, -4.46, -4.46, 1.7, 1.7, 1.16, 1.16, 1.16, 1.16, 1.16, 1.16, 1.07, 1.07, 1.19, 1.19, 1.07, 1.07, 1.07, 1.07, 1.07, 1.07, 0.54, 0.59, 0.59, 0.59, 0.0, 0.0, 0.0, 0.0, 0.0, 0.0, -0.59, -0.54, -0.55, -0.63, -0.57, -0.59, -0.59, -0.61, -1.16, -1.16, -1.33, -1.13, -1.13, -1.13, -0.59, -0.59, -0.57, -0.57, -0.63, -0.55, -1.19, -1.07, -1.16, -1.7, -1.7, -1.7, -1.76, -1.58, -1.13, -1.33, -1.16, -1.13, -1.6, -1.6, -1.6, -1.84, -1.61, -1.2, 0.0, 0.0, 0.0, 0.0, -0.45, -0.89, -1.2, -0.95, 0.0, 0.99, 1.88, 3.64, 6.32, 7.68, 8.76, 9.32, 9.93, 10.2, 7.82, 0.68, -4.8, -7.9, -7.82, -6.24, -6.24, -5.86, -5.38, -5.13, -5.21, -5.21, -5.21, -5.21, 1.16, 1.16, 1.16, 1.16, 1.16, 1.16, 1.16, 1.07, 1.07, 1.19, 1.19, 1.19, 1.07, 1.07, 1.07, 1.07, 1.07, 1.07, 0.54, 0.54, 0.59, 0.59, 0.0, 0.0, 0.0, 0.0, 0.0, 0.0, -0.59, -0.61, -0.55, -0.57, -0.57, -0.59, -0.59, -1.16, -1.33, -1.33, -1.13, -1.13, -1.13, -1.13, -0.59, -0.59, -0.59, -0.57, -0.57, -1.08, -1.19, -1.07, -1.7, -1.7, -1.7, -1.7, -1.76, -1.58, -1.6, -1.33, -1.33, -1.13, -1.6, -1.8, -1.8, -1.84, -1.88, -1.4, 0.0, 0.0, 0.0, 0.0, 0.0, -0.89, -0.45, 0.0, 0.0, 1.26, 1.9, 3.83, 6.44, 6.7, 6.14, 6.9, 9.42, 12.48, 11.4, 6.43, -0.7, -6.32, -7.27, -6.98, -6.68, -6.32, -6.24, -6.24, -6.64, -5.94, -5.94, -5.94, 1.16, 1.16, 1.16, 1.16, 1.16, 1.16, 1.16, 1.07, 1.19, 1.19, 1.19, 1.19, 1.07, 1.07, 1.07, 1.07, 1.07, 1.07, 0.54, 0.54, 0.54, 0.0, 0.0, 0.0, 0.0, 0.0, 0.0, 0.0, -0.54, -0.61, -0.55, -0.57, -0.57, -0.59, -0.59, -1.13, -1.13, -1.6, -1.6, -1.6, -1.13, -1.13, -0.51, -0.59, -0.59, -0.57, -0.57, -1.08, -1.19, -1.55, -1.7, -1.7, -1.7, -1.73, -1.76, -1.58, -1.8, -1.6, -1.13, -1.13, -1.8, -1.8, -1.8, -1.84, -1.88, -1.26, -0.6, 0.0, 0.0, 0.0, 0.0, 0.0, -0.45, 0.0, 0.0, 1.2, 2.4, 3.51, 4.66, 5.46, 5.3, 5.76, 8.46, 10.91, 9.6, 6.76, -2.04, -6.11, -6.54, -5.72, -5.69, -6.08, -6.06, -6.32, -6.01, -4.43, -4.43, -4.43, 1.16, 1.16, 1.16, 1.16, 1.16, 1.16, 1.07, 1.19, 1.19, 1.19, 1.19, 1.19, 1.19, 1.19, 1.19, 1.07, 1.07, 1.07, 0.54, 0.54, 0.54, 0.0, 0.0, 0.0, 0.0, 0.0, 0.0, 0.0, 0.0, -0.61, -0.55, -0.57, -0.57, -0.59, -1.13, -1.13, -1.6, -1.6, -1.8, -1.6, -1.13, -0.51, -0.51, -0.59, -0.59, -0.57, -1.11, -1.08, -1.19, -1.73, -1.7, -1.88, -1.73, -1.76, -1.76, -1.58, -1.8, -1.8, -1.8, -1.8, -1.8, -1.8, -1.8, -1.6, -1.61, -1.26, -1.26, -0.95, 0.0, 0.0, 0.0, 0.0, 0.0, -0.45, 0.0, 0.45, 1.79, 2.68, 2.91, 3.14, 3.64, 4.56, 5.38, 6.09, 5.66, 2.18, 0.0, -3.58, -5.36, -4.73, -5.0, -4.74, -4.73, -4.12, -2.53, -1.58, -1.58, -1.58, 1.16, 1.16, 1.16, 1.16, 1.16, 1.07, 1.19, 1.19, 1.19, 1.19, 1.19, 1.19, 1.19, 1.19, 1.19, 1.19, 1.19, 0.54, 0.54, 0.54, 0.54, 0.59, 0.0, 0.0, 0.0, 0.0, 0.0, 0.0, 0.0, -0.61, -0.55, -0.57, -0.57, -1.27, -1.13, -1.13, -1.8, -1.8, -1.8, -1.13, -1.13, -0.51, -0.51, -0.51, -0.59, -0.57, -1.11, -1.08, -1.73, -1.73, -1.73, -1.73, -1.73, -1.76, -1.76, -1.8, -1.8, -1.8, -1.8, -1.58, -1.76, -1.76, -1.8, -1.8, -1.61, -1.26, -1.6, -1.7, -1.34, -0.89, -0.45, 0.0, 0.0, 0.0, -0.0, 0.0, 1.34, 2.24, 2.17, 2.21, 2.51, 3.72, 3.0, 2.28, 0.0, 0.0, 0.0, -2.24, -5.2, -3.98, -4.07, -4.36, -2.86, -2.23, -1.2, 0.0, 0.0, 0.0, 1.16, 1.16, 1.16, 1.16, 1.16, 1.07, 1.19, 1.19, 1.19, 1.19, 1.19, 1.19, 1.19, 1.19, 1.19, 1.19, 1.19, 0.61, 0.54, 0.54, 0.54, 0.54, 0.0, 0.0, 0.0, 0.0, 0.0, 0.0, 0.0, -0.55, -0.55, -0.57, -0.57, -1.11, -1.27, -1.8, -1.8, -1.8, -1.13, -1.13, -1.13, -0.51, -0.51, -0.59, -0.59, -1.11, -1.11, -1.23, -1.73, -1.73, -1.73, -1.73, -1.73, -1.76, -1.8, -1.8, -1.8, -1.8, -2.0, -2.22, -2.22, -2.22, -2.22, -2.23, -1.61, -0.99, -1.7, -2.12, -2.24, -1.79, -1.7, -1.79, -1.6, -0.8, 0.0, 0.0, 0.89, 1.79, 1.58, 1.2, 1.88, 2.07, 2.2, 0.0, -0.72, -0.71, 0.0, -1.49, -4.09, -3.97, -3.14, -3.15, -2.68, -2.17, -1.34, 0.0, 0.0, 0.0, 1.16, 1.16, 1.16, 1.16, 1.07, 1.19, 1.19, 1.19, 1.19, 1.19, 1.19, 1.19, 1.19, 1.19, 1.19, 1.19, 0.61, 0.61, 0.61, 0.54, 0.54, 0.0, 0.0, 0.0, 0.0, 0.0, 0.0, 0.0, 0.0, -0.55, -0.55, -0.57, -1.11, -1.11, -1.11, -1.58, -1.8, -1.27, -1.13, -1.13, -0.59, -0.51, -0.51, -0.59, -0.59, -1.11, -1.11, -1.57, -1.73, -1.73, -1.73, -1.57, -1.76, -1.58, -1.8, -1.8, -1.8, -2.23, -2.22, -2.22, -2.44, -2.44, -2.22, -2.48, -1.61, -1.58, -1.86, -2.17, -1.79, -1.79, -2.24, -2.24, -2.24, -1.7, -1.34, 0.0, 0.0, 0.63, 0.0, 0.54, 0.54, 1.16, 1.5, 0.78, 1.43, 0.72, 0.0, -1.58, -3.49, -3.39, -2.68, -2.53, -2.68, -2.63, -2.24, -1.2, -1.2, -1.2, 1.16, 1.16, 1.16, 1.07, 1.19, 1.19, 1.19, 1.19, 1.19, 1.19, 1.19, 1.19, 1.19, 1.19, 1.19, 1.19, 0.61, 0.61, 0.61, 0.54, 0.54, 0.0, 0.0, 0.0, 0.0, 0.0, 0.0, 0.0, -0.61, -0.55, -0.55, -1.23, -1.23, -1.11, -1.58, -1.58, -1.27, -1.13, -1.13, -0.59, -0.59, -0.51, -0.59, -0.59, -1.13, -1.11, -1.23, -1.57, -1.73, -1.73, -1.76, -1.76, -1.58, -1.8, -1.8, -1.8, -1.8, -2.23, -2.22, -2.44, -2.86, -2.86, -2.86, -2.6, -2.23, -1.61, -1.86, -1.7, -1.7, -1.7, -1.7, -1.34, -1.79, -2.24, -1.79, -1.2, -0.89, -1.2, -0.71, -0.54, 0.0, 0.0, 1.5, 2.4, 3.95, 2.38, 0.73, -1.7, -3.79, -3.39, -2.91, -2.4, -2.17, -2.8, -2.23, -1.24, -1.24, -1.24, 1.16, 1.16, 1.07, 1.07, 1.19, 0.61, 0.61, 0.61, 1.19, 1.19, 1.19, 1.19, 1.19, 1.19, 1.19, 0.61, 0.61, 0.61, 0.61, 0.61, 0.54, 0.0, 0.0, 0.0, 0.0, 0.0, 0.0, 0.0, -0.61, -0.55, -0.55, -1.08, -1.23, -1.23, -1.11, -1.11, -1.27, -1.13, -1.13, -0.59, -0.59, -0.59, -0.59, -0.59, -1.11, -1.11, -1.76, -1.57, -1.73, -1.57, -1.76, -1.76, -1.8, -1.8, -1.8, -1.8, -2.23, -2.48, -2.22, -2.86, -2.86, -3.12, -2.86, -2.86, -2.86, -2.23, -1.9, -1.86, -2.6, -1.7, -1.26, -0.63, -1.34, -1.7, -1.2, -0.89, -1.34, -2.24, -2.4, -1.9, -1.24, -0.61, 0.0, 0.79, 2.37, 2.38, 1.32, -0.65, -2.66, -2.5, -2.6, -0.99, -0.54, -1.24, -0.65, -0.0, -0.0, -0.0, 1.07, 1.07, 1.07, 1.07, 0.61, 0.54, 0.61, 0.61, 1.19, 1.19, 1.08, 1.08, 1.08, 1.08, 1.08, 0.55, 0.55, 0.61, 0.61, 0.61, 0.0, 0.0, 0.0, 0.0, 0.0, 0.0, 0.0, -0.54, -0.61, -0.61, -1.08, -1.08, -1.23, -1.23, -1.11, -1.11, -1.13, -1.13, -0.59, -0.59, -0.59, -0.59, -0.59, -1.13, -1.11, -1.11, -1.76, -1.57, -1.57, -1.76, -1.76, -1.8, -1.8, -1.8, -1.8, -2.23, -2.48, -2.48, -2.86, -2.86, -3.49, -3.49, -3.49, -3.2, -3.48, -2.86, -2.79, -2.68, -2.91, -2.12, -1.7, -1.2, -1.79, -1.86, -1.26, -0.89, -1.34, -2.24, -2.63, -2.8, -2.15, -1.88, -2.29, -1.52, 0.0, 0.0, 0.65, -0.0, -0.0, -0.0, -0.0, -0.0, -0.0, -0.0, -0.0, -0.0, -0.0, -0.0, 1.07, 1.07, 1.07, 0.54, 0.54, 0.54, 0.61, 0.61, 1.19, 1.08, 1.08, 1.08, 1.08, 1.08, 0.55, 0.55, 0.55, 0.55, 0.55, 0.61, 0.0, 0.0, 0.0, 0.0, 0.0, 0.0, -0.59, -0.54, -0.61, -1.19, -1.19, -1.08, -1.08, -1.23, -1.11, -1.11, -1.13, -0.59, -0.59, -0.59, -0.59, -1.13, -1.13, -1.27, -1.11, -1.76, -1.76, -1.76, -1.76, -1.76, -1.76, -1.8, -1.8, -1.8, -2.23, -2.48, -2.48, -2.86, -2.86, -3.49, -3.49, -3.49, -3.49, -3.49, -3.79, -3.48, -3.43, -3.35, -3.2, -2.6, -2.6, -2.68, -2.17, -2.0, -2.17, -1.79, -2.12, -2.17, -3.07, -3.07, -2.8, -2.5, -3.72, -3.61, -3.1, -1.55, 0.0, -0.54, -0.0, 1.35, 0.7, -0.0, -0.0, -0.0, -0.0, -0.0, -0.0, -0.0, 0.54, 0.54, 0.54, 0.54, 0.54, 0.54, 0.61, 0.61, 0.61, 0.55, 0.55, 0.55, 0.55, 0.55, 0.55, 0.55, 0.55, 0.55, 0.55, 0.0, 0.0, 0.0, 0.0, 0.0, 0.0, 0.0, -0.54, -0.54, -0.54, -1.19, -1.19, -1.08, -1.08, -1.11, -1.11, -1.11, -0.59, -0.59, -0.59, -1.13, -1.13, -1.13, -1.13, -1.27, -1.11, -1.76, -1.76, -1.76, -1.76, -1.76, -1.58, -1.8, -1.8, -2.23, -2.48, -2.86, -2.86, -2.86, -3.2, -3.49, -3.49, -3.79, -3.79, -3.79, -4.07, -4.07, -3.73, -4.0, -3.88, -4.11, -4.77, -3.13, -2.68, -2.17, -2.24, -2.24, -2.24, -2.17, -2.24, -2.68, -2.6, -2.5, -3.72, -3.88, -3.91, -3.18, -1.58, -0.68, -0.6, -0.0, 0.63, -0.0, -0.0, -0.0, -0.0, -0.0, -0.0, -0.0, 0.54, 0.54, 0.54, 0.54, 0.54, 0.61, 0.61, 0.61, 0.55, 0.55, 0.55, 0.55, 0.55, 0.55, 0.55, 0.55, 0.55, 0.55, 0.0, 0.0, 0.0, 0.0, 0.0, 0.0, 0.0, -0.54, -0.54, -0.54, -1.07, -1.19, -1.19, -1.08, -1.08, -1.11, -1.11, -1.11, -1.13, -1.13, -1.13, -1.13, -1.13, -1.13, -1.13, -1.11, -1.58, -1.76, -1.76, -1.76, -1.76, -1.76, -1.8, -2.23, -2.23, -2.48, -2.86, -2.86, -2.86, -3.2, -3.49, -3.49, -3.79, -4.11, -3.79, -4.07, -4.07, -4.07, -4.07, -4.37, -4.27, -4.4, -4.6, -3.07, -2.68, -0.89, -0.45, -1.34, -2.24, -1.79, -1.79, -2.24, -2.63, -3.45, -4.43, -4.5, -3.78, -3.09, -2.34, -0.76, -0.68, -0.65, -0.0, -0.0, -0.0, -0.0, -0.0, -0.0, -0.0, -0.0, 0.54, 0.54, 0.54, 0.54, 0.54, 0.61, 0.61, 0.61, 0.55, 0.55, 0.55, 0.55, 0.55, 0.55, 0.55, 0.55, 0.55, 0.0, 0.0, 0.0, 0.0, 0.0, 0.0, 0.0, 0.0, -0.54, -0.54, -1.07, -1.07, -1.19, -1.19, -1.08, -1.23, -1.11, -1.11, -1.11, -1.13, -1.13, -1.13, -1.13, -1.13, -1.13, -1.13, -1.8, -1.58, -1.58, -1.76, -1.76, -1.76, -2.22, -2.23, -2.23, -2.23, -2.48, -2.86, -2.86, -3.2, -3.49, -3.49, -3.49, -3.79, -4.11, -4.11, -4.41, -4.65, -4.29, -4.29, -4.55, -4.55, -4.4, -4.4, -4.6, -3.2, 0.0, 0.0, -0.45, -1.79, -1.79, -1.79, -2.24, -3.07, -3.83, -4.74, -4.6, -4.48, -3.04, -1.56, 0.0, 0.0, 0.0, 0.0, 0.0, -0.0, 0.63, 0.63, 0.0, 0.0, 0.0, 0.54, 0.54, 0.54, 0.54, 0.54, 0.61, 0.61, 0.61, 0.55, 0.55, 0.55, 0.55, 0.55, 0.55, 0.55, 0.55, 0.55, 0.0, 0.0, 0.0, 0.0, 0.0, 0.0, 0.0, 0.0, -0.54, -0.54, -1.07, -1.07, -1.19, -1.19, -1.08, -1.23, -1.11, -1.11, -1.11, -1.13, -1.13, -1.13, -1.13, -1.13, -1.13, -1.13, -1.8, -1.58, -1.58, -1.76, -1.76, -1.76, -2.22, -2.23, -2.23, -2.23, -2.48, -2.86, -2.86, -3.2, -3.49, -3.49, -3.49, -3.79, -4.11, -4.11, -4.41, -4.65, -4.29, -4.29, -4.55, -4.55, -4.4, -4.4, -4.6, -3.2, 0.0, 0.0, -0.45, -1.79, -1.79, -1.79, -2.24, -3.07, -3.83, -4.43, -4.71, -4.5, -3.07, -1.54, -0.78, 0.0, 0.74, 0.73, 0.0, 0.0, 0.57, 0.57, 0.57, 0.57, 0.57]}]